İHALESİ DEVAM EDEN HASARLI ARAÇLARIN LİSTESİ

Aşağıda sınırlı sayıda hasarlı araçlar listelenmektedir.
İhaledeki tüm araçları görüp almak istediğiniz araca teklif vermeniz için aşağıda yazılı hesaplarımızdan birine 20.000 TL teminat yatırmanız gerekmektedir.
Teminat yatırdıktan sonra araçlar teklif vermeye başlayabilirsiniz. Araç kaldıktan sonra aracın rakamına göre kapora almaktayız. Ödeme geldiğinde kaporanızı ödeyeceğiniz miktardan düşüyoruz. İsterseniz yatırdığınız teminatınızı da aldığınız araçtan düşebilirsiniz ya da teminatınız durur araç almaya devam edersiniz.
Ödeme yapılacak veya bekleyen araçlar menüsünde aracınız yoksa teminatınızı geri çekebilirsiniz.
Aldığınız aracı ödemezseniz teminatınız yanar.

 #

Model

Aracın Markası Aracın Tipi Bulunduğu Şehir Kapanış Tarihi Asgari Fiyat
1 2021 Motorsiklet REVOLT RM5 X MAXI SCOOTER İzmir 8.5.2026 10:00 250 TL
2 1996 Fiat/Tofaş TİPO 1.6 SLX Manisa 8.5.2026 10:00 250 TL
3 2023 Motorsiklet KANUNI RESA 125 Gaziantep 8.5.2026 10:00 250 TL
4 2024 Motorsiklet ARORA CAPPUCCINO 125 İstanbul 8.5.2026 10:00 250 TL
5 2023 Motorsiklet RKS SPONTINI 110 (GST110T-14) İstanbul 8.5.2026 10:00 250 TL
6 2018 Motorsiklet LIFAN DISCOVERY 150 (LF150-9J) Isparta 8.5.2026 10:00 250 TL
7 2024 Motorsiklet RKS RK 125 S Samsun 8.5.2026 10:00 250 TL
8 2023 Motorsiklet KANUNI SEHA 150 Rize 8.5.2026 10:00 250 TL
9 2014 Motorsiklet KTM 390 DUKE Elazığ 8.5.2026 10:00 250 TL
10 2022 Motorsiklet KUBA BLUEBERRY 50 Aydın 8.5.2026 10:00 250 TL
11 2024 Motorsiklet MONDIAL SFC MİNİ 50 Konya 8.5.2026 10:00 250 TL
12 2025 Motorsiklet MONDIAL SFC 50 Kahramanmaraş 8.5.2026 10:00 250 TL
13 2023 Motorsiklet MONDIAL 50 wing Denizli 8.5.2026 10:00 250 TL
14 2024 Motorsiklet FALCON SALVADOR 188 Çorum 8.5.2026 10:00 250 TL
15 1993 Motorsiklet HONDA KINETIC Kilis 8.5.2026 10:00 250 TL
16 2024 Motorsiklet MONDIAL EXON 50 Ankara 8.5.2026 10:00 250 TL
17 2014 Motorsiklet MONDIAL 100 SUPERBOY i İstanbul 8.5.2026 10:00 250 TL
18 2023 Motorsiklet MONDIAL AİRTİME 50CC Isparta 8.5.2026 10:30 3.000 TL
19 2024 Motorsiklet HONDA ACTIVA 125 Zonguldak 8.5.2026 10:30 2.000 TL
20 2025 Motorsiklet RKS VRS125 İzmir 8.5.2026 10:30 2.000 TL
21 2025 Motorsiklet MONDIAL 125 DRİFT L Kayseri 8.5.2026 10:30 1.000 TL
22 2023 Motorsiklet MONDIAL STRADA 125 Ankara 8.5.2026 10:30 1.500 TL
23 2023 Motorsiklet BAJAJ PULSAR F 250 İzmir 8.5.2026 10:30 2.500 TL
24 2023 Motorsiklet CFMOTO 250 NK Aydın 8.5.2026 10:30 1.000 TL
25 2024 Motorsiklet ARORA AR 06 Samsun 8.5.2026 10:30 500 TL
26 2019 Motorsiklet SYM JET14 125 İstanbul 8.5.2026 10:30 250 TL
27 2022 Motorsiklet MONDIAL VULTURE İ 125 İstanbul 8.5.2026 10:30 500 TL
28 2022 Motorsiklet KUBA SPACE 50 Zonguldak 8.5.2026 10:30 500 TL
29 2023 Motorsiklet APEC APX5 Trabzon 8.5.2026 10:30 500 TL
30 2019 Motorsiklet MONDİAL MASH 125 İstanbul 8.5.2026 10:30 1.500 TL
31 2021 Motorsiklet CFMOTO 150 NK Aydın 8.5.2026 10:30 500 TL
32 2024 Motorsiklet MUSATTI GLAMARO MAX 125 İstanbul 8.5.2026 10:30 250 TL
33 2023 Motorsiklet RKS SPONTINI 110 (GST110T-14) İstanbul 8.5.2026 10:30 500 TL
34 2015 Motorsiklet KYMCO PEOPLE ONE 125i Denizli 8.5.2026 10:30 500 TL
35 2025 Motorsiklet RKS VRS125 İstanbul 8.5.2026 11:00 10.000 TL
36 1998 Renault 19 EUROPA 1.4 RNA Diyarbakır 8.5.2026 11:00 13.500 TL
37 2023 Motorsiklet HONDA DİO Muğla 8.5.2026 11:00 15.000 TL
38 1994 Fiat/Tofaş SAHİN 1.6 Çanakkale 8.5.2026 11:00 7.500 TL
39 2025 Motorsiklet RKS FRECCIA 150 İstanbul 8.5.2026 11:00 8.000 TL
40 2024 Motorsiklet RKS M250 Mersin 8.5.2026 11:00 10.500 TL
41 2024 Motorsiklet ALTAI CARRIER 110 PRO İstanbul 8.5.2026 11:00 3.500 TL
42 2016 Skoda SUPERB STYLE 1.4 TSI ACT 150 Adana 8.5.2026 11:00 16.000 TL
43 2025 Motorsiklet KYMCO SKYTOWN 125 İstanbul 8.5.2026 11:00 12.000 TL
44 2021 Motorsiklet HONDA DİO İstanbul 8.5.2026 11:00 4.000 TL
45 2024 Motorsiklet HERO DASH 125 Bursa 8.5.2026 11:00 3.500 TL
46 2023 Motorsiklet ARORA CAPPUCCINO 125 İzmir 8.5.2026 11:00 37.500 TL
47 2024 Motorsiklet CFMOTO 250 SR Samsun 8.5.2026 11:00 11.000 TL
48 1993 Toyota CORONA 2.0 GLI Kocaeli 8.5.2026 11:00 9.500 TL
49 2024 Motorsiklet TVS RAIDER 125 Kayseri 8.5.2026 11:00 4.500 TL
50 1996 Opel CORSA SWING 1.4 5 KAPI Malatya 8.5.2026 11:00 15.500 TL
51 2023 Motorsiklet YUKI GP-1 TARO 250 R Balıkesir 8.5.2026 11:00 11.500 TL
52 1996 Renault 19 EUROPA 1.4 Mersin 8.5.2026 11:00 3.500 TL
53 1992 Fiat/Tofaş TEMPRA 1.6 SX Ankara 8.5.2026 11:30 38.500 TL
54 2023 Motorsiklet RKS SPONTINI 110 (GST110T-14) Bursa 8.5.2026 11:30 19.500 TL
55 2024 Motorsiklet TVS RAIDER Ankara 8.5.2026 11:30 20.500 TL
56 1998 Renault 19 EUROPA Ankara 8.5.2026 11:30 19.000 TL
57 2021 Motorsiklet BAJAJ DOMINAR 250 Adana 8.5.2026 11:30 21.000 TL
58 2003 Fiat/Tofaş DOBLO CARGO COMBİ 1.9D Rize 8.5.2026 11:30 21.000 TL
59 1994 Fiat/Tofaş DOGAN S Çanakkale 8.5.2026 11:30 19.500 TL
60 1999 Fiat/Tofaş TIPO 1.6 i.e. SLX Ankara 8.5.2026 11:30 19.500 TL
61 2008 Fiat/Tofaş DOBLO CARGO 1.3 MULTIJET ACTIVE İstanbul 8.5.2026 11:30 34.500 TL
62 2003 Renault CLIO SYMBOL AUTHENTIQUE 1.5 DCI İzmir 8.5.2026 11:30 43.500 TL
63 2016 Motorsiklet HONDA PCX 150 İstanbul 8.5.2026 11:30 34.500 TL
64 1997 Mitsubishi L300 PANEL VAN Kocaeli 8.5.2026 11:30 17.500 TL
65 1992 Mazda 626 2.0i SEDAN 16V İstanbul 8.5.2026 11:30 29.000 TL
66 1996 Opel VECTRA 2.0 GLS Bursa 8.5.2026 11:30 19.000 TL
67 2002 Citroen XSARA 2 CLIM 1.6i 5 KAPI Ankara 8.5.2026 11:30 33.000 TL
68 2025 Motorsiklet VOGE R125 Düzce 8.5.2026 11:30 18.500 TL
69 1989 Renault R1339 TOROS TSW Aydın 8.5.2026 12:00 70.000 TL
70 1996 Fiat/Tofaş KARTAL Kastamonu 8.5.2026 12:00 47.500 TL
71 1996 Fiat/Tofaş TIPO 1.4S İstanbul 8.5.2026 12:00 84.000 TL
72 2002 Fiat/Tofaş SIENA 1.2 EL Konya 8.5.2026 12:00 97.500 TL
73 1992 Skoda FAVORIT 135L Antalya 8.5.2026 12:00 68.500 TL
74 1992 Renault R9 1.4 SPRİNG Ordu 8.5.2026 12:00 75.000 TL
75 1998 Renault 19 EUROPA 1.6 RNE Ordu 8.5.2026 12:00 49.500 TL
76 2006 Fiat/Tofaş PALIO 1.4 FIRE ACTIVE Ankara 8.5.2026 12:00 91.000 TL
77 2000 Peugeot 206 GTI 2.0 Aksaray 8.5.2026 12:00 94.000 TL
78 1987 Renault 12 TSW Elazığ 8.5.2026 12:00 61.000 TL
79 2022 Motorsiklet BAJAJ DOMINAR D 250 İstanbul 8.5.2026 12:00 53.500 TL
80 2001 Peugeot 306 PLATINUM 1.6 4 KAPI Yozgat 8.5.2026 12:00 52.000 TL
81 1998 Mitsubishi L300 CAMLIVAN İstanbul 8.5.2026 12:00 68.000 TL
82 1996 Volkswagen GOLF CL 1.8 Ankara 8.5.2026 12:00 66.500 TL
83 2000 Renault SCENIC 1.6 16V RXT OV Bursa 8.5.2026 12:00 81.000 TL
84 1993 Toyota COROLLA XL 1.3 Ankara 8.5.2026 12:00 60.000 TL
85 1998 Opel CORSA 1.4i 16V GLS Kocaeli 8.5.2026 12:00 59.500 TL
86 2006 Fiat/Tofaş DOBLO CARGO 1.4 ACTIVE Sakarya 8.5.2026 14:00 98.500 TL
87 2011 Peugeot BIPPER VAN 1.4 HDI Konya 8.5.2026 14:00 185.000 TL
88 2023 Motorsiklet PEUGEOT XP 400 GT SUV Ankara 8.5.2026 14:00 124.500 TL
89 2020 Toyota COROLLA 1.6 SEDAN Bursa 8.5.2026 15:15 1.000 TL
90 2026 Kia SPORTAGE 1.6 Adana 8.5.2026 15:15 1.000 TL
91 2011 Volkswagen TRANSPORTER CAMLIVAN 2.0 TDI İstanbul 8.5.2026 15:15 2.500 TL
92 2015 Man CEKICI TGS 18.400 4X2 BLS E5 LX Tekirdağ 8.5.2026 15:15 500 TL
93 2023 Renault TAILANT 1.0 TURBO Adana 8.5.2026 15:15 1.000 TL
94 2016 Opel ASTRA NB 1.6 Uşak 8.5.2026 15:15 1.000 TL
95 2026 Volkswagen T-ROC 1.5 ETSI Kayseri 8.5.2026 15:15 1.000 TL
96 2021 Mercedes VITO TOURER Antalya 8.5.2026 15:15 717.000 TL
97 2012 Mercedes CEKICI AXOR 1840 LS 4X2 Gaziantep 8.5.2026 15:15 10.500 TL
98 2022 Mercedes A200 İstanbul 8.5.2026 15:15 1.309.000 TL
99 2024 Toyota COROLLA 1.5 SEDAN Muğla 8.5.2026 15:15 500 TL
100 2010 Toyota COROLLA SEDAN 1.4 D-4D Kocaeli 8.5.2026 15:15 381.800 TL
101 2016 Audi A3 SEDAN 1.6 TDI İstanbul 8.5.2026 15:15 857.500 TL
102 2018 Toyota COROLLA 1.6 SEDAN İstanbul 8.5.2026 15:15 680.000 TL
103 2022 Bmw X3 XDRIVE 20D İstanbul 8.5.2026 15:15 3.426.000 TL
104 2025 Volkswagen GOLF 1.5 ETSI İstanbul 8.5.2026 15:15 1.377.500 TL
105 2020 Volvo V60 CROSS CONTRY 2.0 D4 Ankara 8.5.2026 15:15 1.389.500 TL
106 2015 Volkswagen CADDY KOMBI 1.6 TDI TRENDLINE İstanbul 8.5.2026 15:15 670.500 TL
107 2012 Mercedes CEKICI AXOR 1840 LS 4X2 Tekirdağ 8.5.2026 15:15 692.700 TL
108 2018 Bmw 530i XDRIVE SEDAN 2.0 Diyarbakır 8.5.2026 15:15 1.751.000 TL
109 2024 Volvo XC60 2.0 B5 Bursa 8.5.2026 15:15 3.100.000 TL
110 2017 Renault CLIO 1.5 DCI İstanbul 8.5.2026 15:15 701.000 TL
111 2014 Mercedes CEKICI AXOR 1840 LS E5 Adana 8.5.2026 15:15 800.500 TL
112 2015 Scania CEKICI R400 LA 4x2 HNA Ankara 8.5.2026 15:15 1.500.000 TL
113 2021 Iveco CEKICI S-WAY Adana 8.5.2026 15:15 1.418.000 TL
114 2017 Mercedes KAMYON ATEGO Eskişehir 8.5.2026 15:15 550.000 TL
115 2025 Toyota C-HR 1.8 HYBRID Adana 8.5.2026 15:15 1.555.500 TL
116 2025 Volkswagen AMAROK 3.0 TDI Antalya 8.5.2026 15:15 2.130.000 TL
117 2025 Nissan JUKE 1.0 DIG-T Trabzon 8.5.2026 15:15 1.000.500 TL
118 2011 Skoda OCTAVIA 1.6 Ankara 8.5.2026 15:15 261.000 TL
119 2013 Renault TRAFIC MULTIX GRAND CONFORT 2.0 DCI İstanbul 8.5.2026 15:15 1.000 TL
120 2010 Peugeot 207 TRENDY 1.4 İstanbul 8.5.2026 15:15 500 TL
121 2015 Audi A3 SEDAN 1.6 TDI Antalya 8.5.2026 15:15 4.000 TL
122 2022 Audi A5 SPORTBACK 40TDI QUATTRO ADVANCED Adana 8.5.2026 15:15 2.380.000 TL
123 2015 Mercedes CEKICI AXOR 1840 LS 4X2 Mardin 8.5.2026 15:15 650.000 TL
124 2016 Renault KADJAR 1.5 DCI Mardin 8.5.2026 15:15 726.500 TL
125 2017 Opel ASTRA NB 1.6 İstanbul 8.5.2026 15:15 577.500 TL
126 2016 Volkswagen JETTA 1.4 TSI BMT Bursa 8.5.2026 15:15 671.500 TL
127 2022 Volkswagen PASSAT 1.5 TSI Mersin 8.5.2026 15:15 1.154.000 TL
128 2005 Dorse/Römork FRİGORİFİK YARI RÖMORK Mersin 8.5.2026 15:15 1.000 TL
129 2020 Porsche CAYENNE 3.0 İstanbul 8.5.2026 15:15 56.500 TL
130 2021 Renault MEGANE SEDAN JOY 1.3 TCE İstanbul 8.5.2026 15:15 1.000 TL
131 2022 Audi A5 SPORTBACK 40 TDI QUATTRO İzmir 8.5.2026 15:15 415.500 TL
132 2022 Renault ZOE Konya 8.5.2026 15:15 1.200 TL
133 2011 Mitsubishi CANTER KAMYON FE 859 G Bursa 8.5.2026 15:15 1.000 TL
134 2006 Scania KAMYON R 380 GB 8x2 NZ Bolu 8.5.2026 15:15 1.500 TL
135 2024 Fiat/Tofaş DOBLO COMBI 1.5 BLUEHDI Antalya 8.5.2026 15:15 500 TL
136 2024 Toyota COROLLA 1.5 SEDAN İstanbul 8.5.2026 15:15 1.000 TL
137 2025 Skoda OCTAVIA PRESTIGE 1.5 TSI MHEV 150 DSG FL İstanbul 8.5.2026 15:30 1.000 TL
138 2008 Dorse/Römork KÖGEL DORSE Şehir Seç 8.5.2026 15:30 1.000 TL
139 2023 Ford PUMA ST-LINE 1.0 MHEV ECOBOOST 155 7AT Van 8.5.2026 15:30 1.000 TL
140 2025 Mercedes CEKICI ACTROS 1848 LS 4x2 FL Ankara 8.5.2026 15:30 1.000 TL
141 2016 Volkswagen PASSAT 1.4 TSI BMT 125 DSG Sakarya 8.5.2026 15:30 1.000 TL
142 2021 Volkswagen T-ROC 1.5 TSI HIGHLINE Şehir Seç 8.5.2026 15:30 1.000 TL
143 2025 Ford RANGER XLT 4x4 2.0 ECOBLUE 170 10A/T İstanbul 8.5.2026 15:30 1.000 TL
144 2013 Opel CORSA 5 KAPI 1.3 CDTi (75) EURO5 ESSENTIA İstanbul 8.5.2026 15:30 1.000 TL
145 2025 Byd SEAL U EV İstanbul 8.5.2026 15:30 1.000 TL
146 2020 Opel GRANDLAND X 1.5 D İstanbul 8.5.2026 15:30 1.000 TL
147 2025 Ford RANGER XLT 4x4 2.0 ECOBLUE 170 10A/T İstanbul 8.5.2026 15:30 1.000 TL
148 2013 Volkswagen POLO 1.2 (70) TRENDLINE İstanbul 8.5.2026 15:30 1.000 TL
149 2012 Bmw 330D X DRIVE İstanbul 8.5.2026 15:30 1.000 TL
150 2023 Renault TRAFIC COMBI 8+1 GRAND CONFORT 6M3 EDC 170 İstanbul 8.5.2026 15:30 1.000 TL
151 2024 Peugeot 408 1.2 PURETECH Tekirdağ 8.5.2026 15:30 1.000 TL
152 2015 Audi A3 SEDAN 1.6 TDI 110 S TRONIC Antalya 8.5.2026 15:30 1.000 TL
153 2012 Bmw X6 XDRIVE 40d İstanbul 8.5.2026 15:30 1.000 TL
154 2023 Motorsiklet NEWLIGHT 125 PRO Ankara 8.5.2026 15:30 1.000 TL
155 2013 Bmw 320 ied SEDAN (170) MODERN LINE Kayseri 8.5.2026 15:30 1.000 TL
156 2023 Renault EXPRESS COMBI JOY 1.5 BLUEDCI 95 D-FULL Kocaeli 8.5.2026 15:30 1.000 TL
157 2025 Motorsiklet 125 DRIFT L CBS Kayseri 8.5.2026 15:30 1.000 TL
158 2013 Toyota YARIS 1.33 STYLE Kahramanmaraş 8.5.2026 15:30 1.000 TL
159 2020 Volkswagen T-ROC 1.5 TSI Ankara 8.5.2026 15:30 1.000 TL
160 2015 Opel CORSA 5 KAPI COLOR EDITION 1.4 90 OV İstanbul 8.5.2026 15:30 1.000 TL
161 2013 Volkswagen JETTA 1.6 TDI (105) HIGHLINE İzmir 8.5.2026 15:30 1.000 TL
162 2014 Seat TOLEDO 1.2 TSI 105 STYLE Osmaniye 8.5.2026 15:30 1.000 TL
163 2024 Ford RANGER XLT 4x4 2.0 ECOBLUE 170 10A/T Şırnak 8.5.2026 15:30 1.000 TL
164 2020 Hyundai i20 1.4 MPI İstanbul 8.5.2026 15:30 1.000 TL
165 2016 Mercedes C 200 d 1.6 AMG İstanbul 8.5.2026 15:30 1.000 TL
166 2017 Renault SYMBOL TOUCH 1.5 DCI 90 Eskişehir 8.5.2026 15:30 1.000 TL
167 2015 Motorsiklet NİNJA 300 İstanbul 8.5.2026 15:30 1.000 TL
168 2025 Opel CORSA 1.2 100 AT8 EDITION FL Sakarya 8.5.2026 15:30 1.000 TL
169 2014 Man CEKICI TGS 18.400 Ankara 8.5.2026 15:30 1.000 TL
170 2006 Volkswagen GOLF 1.6 FSI C.TLINE (115) 4 KAPI Çanakkale 8.5.2026 15:30 1.000 TL
171 2018 Honda ACTIVA S (NSC125) İstanbul 8.5.2026 15:30 1.000 TL
172 2017 Renault SYMBOL JOY 1.5 DCI 90 Kocaeli 8.5.2026 15:30 1.000 TL
173 2020 Dacia DOKKER COMBI AMBIANCE ECO-G 110 Şehir Seç 8.5.2026 15:30 1.000 TL
174 2007 Mercedes SPRINTER 315 CDI K.OTOBUS (O317AC) 16+1 Ordu 8.5.2026 15:30 1.000 TL
175 1989 Fiat/Tofaş DOGAN 1.6 Kütahya 8.5.2026 15:30 1.000 TL
176 2021 Ford TRANSIT VAN 350L 11M3 UPGRADE 185 DELUXE Şanlıurfa 8.5.2026 15:30 1.000 TL
177 2024 Ford TOURNEO COURIER KOMBI 1.5 TDCI 100 SCR TITANIUM İstanbul 8.5.2026 15:30 1.000 TL
178 2015 Ford TOURNEO COURIER KOMBI 1.5 TDCI 75 DELUX Batman 8.5.2026 15:30 1.000 TL
179 2018 Ford FIESTA TITANIUM 1.5 TDCI 85 Elazığ 8.5.2026 15:30 1.000 TL
180 2011 Chevrolet CAPTIVA 2.0 16V DIESEL HIGH OV 7K Ankara 8.5.2026 15:30 1.000 TL
181 2013 Seat IBIZA 1.2 TSI (105) STYLE DSG Kırklareli 8.5.2026 15:30 1.000 TL
182 2025 Fiat/Tofaş EGEA SEDAN EASY 1.6 M.JET 130 GSR İstanbul 8.5.2026 15:30 1.000 TL
183 2025 Skoda KAMIQ 1.0 TSI 115 DSG PREMIUM FL Şanlıurfa 8.5.2026 15:30 1.000 TL
184 2021 Peugeot 2008 ACTIVE 1.5 BLUEHDI 130 EAT8 Balıkesir 8.5.2026 15:30 1.000 TL
185 2013 Seat TOLEDO 1.4 TSI 122 STYLE DSG Ankara 8.5.2026 15:30 1.000 TL
186 2023 Hyundai i20 FL 1.4 MPI 100 STYLE OV Antalya 8.5.2026 15:30 1.000 TL
187 2025 Toyota C-HR 1.8 (140) HYBRID FLAME E-CVT Eskişehir 8.5.2026 15:30 1.000 TL
188 2007 Mercedes ML 280 CDI START İstanbul 8.5.2026 15:30 1.000 TL
189 2003 Volkswagen BORA 1.6 16V PASIFIC Ankara 8.5.2026 15:30 1.000 TL
190 2012 Volkswagen GOLF 1,4 TSİ Giresun 8.5.2026 15:30 1.000 TL
191 2022 Mercedes CEKICI ACTROS 1851 LS 4x2 FL Antalya 8.5.2026 15:30 1.000 TL
192 2021 Toyota COROLLA 1.5 Edirne 8.5.2026 15:30 1.000 TL
193 2025 Renault CLIO 1.0 TCE Düzce 8.5.2026 15:30 1.000 TL
194 2004 Volkswagen PASSAT 1.6 TRENDLINE Gaziantep 8.5.2026 15:30 1.000 TL
195 2021 Renault CLIO 1,0 TCe İstanbul 8.5.2026 15:30 1.000 TL
196 2019 Kia RIO 1.25 Samsun 8.5.2026 15:30 1.000 TL
197 1994 Fiat/Tofaş DOGAN S Sakarya 8.5.2026 15:30 1.000 TL
198 2014 Dacia DUSTER 1.5 DCI 90 4x2 Muğla 8.5.2026 15:30 1.000 TL
199 2023 Motorsiklet UAG 100 Muğla 8.5.2026 15:30 1.000 TL
200 2014 Ford FOCUS III MCA STYLE 1.6 125 4K İzmir 8.5.2026 15:30 1.000 TL
201 2012 Seat IBIZA 1.2 TSI (105) STYLE DSG İzmir 8.5.2026 15:30 1.000 TL
202 2024 Honda CITY 4D 1.5 EXECUTIVE AT İzmir 8.5.2026 15:30 1.000 TL
203 2025 Kia XCEED ELEGANCE 1.5 140 DCT Muğla 8.5.2026 15:30 1.000 TL
204 2024 Ford TRAN.ICA3 350LF VAN 11.5M3 2.0 165UZUNTREND Iğdır 8.5.2026 15:30 1.000 TL
205 2024 Hyundai i20 FL 1.0 T 100 JUMP DCT İstanbul 8.5.2026 15:30 1.000 TL
206 2020 Opel CROSSLAND X 1.5 DIZEL 120 S&S AT6 EXCELENCE İstanbul 8.5.2026 15:30 1.000 TL
207 2017 Renault CLIO HB 1.5 DCI Tekirdağ 8.5.2026 15:30 1.000 TL
208 2016 Mercedes VITO 119 CDI Select Erzurum 8.5.2026 15:30 1.000 TL
209 2003 Citroen BERLINGO 1.9 D Edirne 8.5.2026 15:30 1.000 TL
210 2020 Fiat/Tofaş DOBLO COMBI MAXİ PREMIO+ 1.6 MJET 120 E6D Bursa 8.5.2026 15:30 1.000 TL
211 2020 Motorsiklet 44 LOYAL 50 Balıkesir 8.5.2026 15:30 1.000 TL
212 2011 Peugeot 3008 ALLURE 1.6 HDI (112) Ankara 8.5.2026 15:30 1.000 TL
213 2014 Renault TRAFIC PANELVAN GRAND CONFORT 6M3 2.0 DCI 115 Afyonkarahisar 8.5.2026 15:30 1.000 TL
214 2006 Fiat/Tofaş ALBEA 1.3 MULTIJET ACTIVE İstanbul 8.5.2026 15:30 1.000 TL
215 2006 Opel CORSA 1.3 CDTi 5 KAPI ESSENTIA İzmir 8.5.2026 15:30 1.000 TL
216 2016 Ford TOURNEO COURIER 1.6 TDCI Aksaray 8.5.2026 15:30 1.000 TL
217 2009 Dorse/Römork BRANDALI RÖMORK MERAL KASA Kayseri 8.5.2026 15:30 1.000 TL
218 2010 Chevrolet CRUZE 1.6 LS Niğde 8.5.2026 15:30 1.000 TL
219 2023 Fiat/Tofaş FIORINO COMBI 1.3 M.JET 95 İstanbul 8.5.2026 15:30 1.000 TL
220 2025 Fiat/Tofaş EGEA SEDAN 1.6 M.JET İstanbul 8.5.2026 15:30 1.000 TL
221 2024 Fiat/Tofaş EGEA 1.6 MJET SEDAN Samsun 8.5.2026 15:30 1.000 TL
222 2025 Bmw 120 1.5 170 M SPORT İstanbul 8.5.2026 15:30 1.000 TL
223 2025 Bmw 120 1.5 170 M SPORT İstanbul 8.5.2026 15:30 1.000 TL
224 2025 Ford TOURNEO COURIER 1.0 P 125 AT TITANIUM Malatya 8.5.2026 15:30 1.000 TL
225 2025 Bmw 320i SEDAN 1.6 170 SPORT LINE İstanbul 8.5.2026 15:30 1.000 TL
226 2025 Hyundai BAYON FL 1.0 T-GDI 100 STYLE DCT İstanbul 8.5.2026 15:30 1.000 TL
227 2025 Peugeot 2008 GT 1.2 PURETECH Antalya 8.5.2026 15:30 1.000 TL
228 2013 Ford CARGO 1838T Mardin 8.5.2026 15:30 1.000 TL
229 1994 Renault R1339 TOROS Samsun 8.5.2026 15:30 1.000 TL
230 2021 Skoda SUPERB 1.5 TSI Van 8.5.2026 15:30 1.000 TL
231 2013 Mercedes CLA 200 Antalya 8.5.2026 15:30 1.000 TL
232 2024 Dorse/Römork FESAN YARI RÖMORK Kayseri 8.5.2026 15:30 1.000 TL
233 2014 Volkswagen CADDY KOMBI 1.6 TDI 102 DSG Bursa 8.5.2026 15:30 1.000 TL
234 2024 KG TORRES EVX İzmir 8.5.2026 15:30 TL
235 2023 Honda CITY 4D 1.5 Ankara 8.5.2026 15:30 1.000 TL
236 2020 Ford PUMA 1.0 ECOBOOST Hatay 8.5.2026 15:30 1.000 TL
237 1993 Fiat/Tofaş TEMPRA Konya 8.5.2026 15:30 1.000 TL
238 1988 Fiat/Tofaş MURAT 1.6 Aydın 8.5.2026 15:30 1.000 TL
239 2022 Fiat/Tofaş EGEA SEDAN EASY 1.3 M.JET Konya 8.5.2026 15:30 1.000 TL
240 2024 Peugeot e 2008 Mersin 8.5.2026 15:30 1.000 TL
241 2023 Opel CORSA 1.2 İstanbul 8.5.2026 15:30 1.000 TL
242 2005 Honda JAZZ 1.4 LS Adana 8.5.2026 15:30 1.000 TL
243 2022 Motorsiklet RESA 125 Giresun 8.5.2026 15:30 1.000 TL
244 2012 Toyota AURIS 1.4 D4D Tokat 8.5.2026 15:30 1.000 TL
245 2014 Fiat/Tofaş DOBLO 1.3 MJET Ankara 8.5.2026 15:30 1.000 TL
246 1988 Fiat/Tofaş DOĞAN 1.6 Sakarya 8.5.2026 15:30 1.000 TL
247 2019 Ford TRANSIT COURIER VAN 1.5 TDCI İzmir 8.5.2026 15:30 1.000 TL
248 2014 Renault SYMBOL 1.5 DCI Karabük 8.5.2026 15:30 1.000 TL
249 2020 Dorse/Römork N/A YARI RÖMORK TENTELİ İzmir 8.5.2026 15:30 1.000 TL
250 2013 Dorse/Römork MEILLER KISA 3 YARI ROMÖRK Antalya 8.5.2026 15:30 1.000 TL
251 1997 Mazda 323 1.8 SEDAN Çorum 8.5.2026 15:30 1.000 TL
252 2006 Fiat/Tofaş DOBLO 1.3 MULTIJET Sivas 8.5.2026 15:30 1.000 TL
253 2024 Motorsiklet TK 03 Denizli 8.5.2026 15:30 1.000 TL
254 2003 Fiat/Tofaş MAREA 1.6 EXCLUSIVE Ankara 8.5.2026 15:30 1.000 TL
255 2014 Volkswagen CRAFTER 16+1 MİNİBÜS Şanlıurfa 8.5.2026 15:30 1.000 TL
256 2017 Dacia DOKKER COMBI 1.5 DCI 90 Ankara 8.5.2026 15:30 1.000 TL
257 2004 Peugeot 307 1.6 XT İstanbul 8.5.2026 15:30 1.000 TL
258 2014 Fiat/Tofaş DOBLO CARGO 1.3 M.JET 90 Kocaeli 8.5.2026 15:30 1.000 TL
259 2002 Peugeot PARTNER 1.9D Trabzon 8.5.2026 15:30 1.000 TL
260 2000 Mitsubishi L200 ÇİFT KABİN KAMYONET Hatay 8.5.2026 15:30 1.000 TL
261 2000 Fiat/Tofaş PALIO 1.4 EL Isparta 8.5.2026 15:30 1.000 TL
262 2005 Peugeot 206 1.4 HDI Ankara 8.5.2026 15:30 1.000 TL
263 2006 Peugeot 307 COMFORT 1.6 HDI Diyarbakır 8.5.2026 15:30 1.000 TL
264 2017 Peugeot 2008 1.6 BLUEHDI İstanbul 8.5.2026 15:30 1.000 TL
265 2025 Motorsiklet PULSAR 200 NS İstanbul 8.5.2026 15:30 1.000 TL
266 2024 Motorsiklet Benellı 125S İstanbul 8.5.2026 15:30 TL
267 2017 Dacia DOKKER COMBI 1.5 Adana 8.5.2026 15:30 1.000 TL
268 2004 Honda ACCORD 2.0 Şehir Seç 8.5.2026 15:30 1.000 TL
269 2021 Motorsiklet CAPPUCINO 50 Muğla 8.5.2026 15:30 1.000 TL
270 2018 Honda CIVIC SEDAN 1.6 (125) OV Ankara 8.5.2026 15:30 1.000 TL
271 2024 Byd SEAL U DM-i Balıkesir 8.5.2026 15:30 1.000 TL
272 2020 Peugeot 308 1.2 PURETECH İstanbul 8.5.2026 15:30 1.000 TL
273 2020 Kia CEED COOL 1.4 Artvin 8.5.2026 15:30 1.000 TL
274 2017 Volkswagen GOLF 1.6 TDI BMT Adana 8.5.2026 15:30 1.000 TL
275 2018 Fiat/Tofaş EGEA EASY 1.6 M.JET Diyarbakır 8.5.2026 15:30 1.000 TL
276 2012 Hyundai ix351.6 GDI 4x2 STYLE PLUS Kocaeli 8.5.2026 15:30 1.000 TL
277 2016 Motorsiklet X-MAX 250 İstanbul 8.5.2026 15:30 1.000 TL
278 2017 Volkswagen PASSAT 1.6 TDI BMT İstanbul 8.5.2026 15:30 1.000 TL
279 1998 Volkswagen TRANSPORTER 2.4 D P.VAN Kırıkkale 8.5.2026 15:30 1.000 TL
280 2014 Fiat/Tofaş DOBLO COMBI 1.6 M.JET 105 Erzurum 8.5.2026 15:30 1.000 TL
281 2005 Alfa Romeo 156 1.6 TS Ankara 8.5.2026 15:30 1.000 TL
282 2019 Volkswagen TIGUAN 1.6 TDI COMFORTLİNE Şanlıurfa 8.5.2026 15:30 1.000 TL
283 2021 Dacia SANDERO 1.0 İstanbul 8.5.2026 15:30 1.000 TL
284 2011 Nissan NOTE 1.5 DCI TEKNA Ankara 8.5.2026 15:30 1.000 TL
285 2011 Dacia LOGAN 1.6 Kayseri 8.5.2026 15:30 1.000 TL
286 2001 Skoda OCTAVIA COMBI 1.6 AMBIENTE Kocaeli 8.5.2026 15:30 1.000 TL
287 2005 Ford FOCUS GHIA HB Şehir Seç 8.5.2026 15:30 1.000 TL
288 2025 Motorsiklet LAVINIA PRO 125 Ankara 8.5.2026 15:30 1.000 TL
289 2001 Renault SCENIC 1.6 16V RXT Ankara 8.5.2026 15:30 1.000 TL
290 2023 Jeep RENEGADE 1.5 Ankara 8.5.2026 15:30 1.000 TL
291 2005 Peugeot 307 LOOK 1.6 HDİ İstanbul 8.5.2026 15:30 1.000 TL
292 2022 Honda PCX 125 İzmir 8.5.2026 15:30 1.000 TL
293 2023 Motorsiklet 125 CAPUCCINO İstanbul 8.5.2026 15:30 1.000 TL
294 2021 Fiat/Tofaş FIORINO CARGO 1.3 M.JET İzmir 8.5.2026 15:30 1.000 TL
295 2024 Motorsiklet PULSAR RS 200 İstanbul 8.5.2026 15:30 1.000 TL
296 2013 Volkswagen POLO 1.6 TDI COMFORTLINE Adana 8.5.2026 15:30 1.000 TL
297 2001 Lada 2110 VEGA SEDAN 1.5İ Sakarya 8.5.2026 15:30 1.000 TL
298 2018 Renault MEGANE SEDAN 1.5 DCI Ankara 8.5.2026 15:30 1.000 TL
299 2024 Citroen BERLINGO VAN 1.5 BLUEHDI İstanbul 8.5.2026 15:30 1.000 TL
300 2004 Citroen JUMPER 2.8 HDI Afyonkarahisar 8.5.2026 15:30 1.000 TL
301 2021 Dacia DOKKER COMBI AMBIANCE 1.5 BLUEDCI Denizli 8.5.2026 15:30 1.000 TL
302 2015 Fiat/Tofaş DOBLO CARGO MAXI 1.3 M.JET Kocaeli 8.5.2026 15:30 1.000 TL
303 2016 Skoda RAPID 1.4 TDI İstanbul 8.5.2026 15:30 1.000 TL
304 2010 Citroen C3 1.4 HDI Mersin 8.5.2026 15:30 1.000 TL
305 2023 Togg T10X Ankara 8.5.2026 15:30 1.000 TL
306 2000 Lada VEGA STATION 1.5 Malatya 8.5.2026 15:30 1.000 TL
307 2012 Tata VISTA 1.3 Afyonkarahisar 8.5.2026 15:30 1.000 TL
308 2018 Ford TOURNEO COUIRER KOMBI 1.5 TDCI Denizli 8.5.2026 15:30 1.000 TL
309 2025 Motorsiklet AR 06 Konya 8.5.2026 15:30 1.000 TL
310 2004 Peugeot 307 1.6 XT Eskişehir 8.5.2026 15:30 1.000 TL
311 2003 Nissan PRIMERA 1.6 TEKNA Uşak 8.5.2026 15:30 1.000 TL
312 2022 Toyota HILUX 2.4 Trabzon 8.5.2026 15:30 1.000 TL
313 2024 Jaecoo JAECOO 7 1.6 Adana 8.5.2026 15:30 1.000 TL
314 2023 Mercedes KAMYON AROCS 3345 Eskişehir 8.5.2026 15:30 1.000 TL
315 2023 Motorsiklet FRECCIA 150 Şehir Seç 8.5.2026 15:30 1.000 TL
316 2013 Audi A3 SPORTBACK 1.6 TDI 105 S TRONIC Ankara 8.5.2026 15:30 1.000 TL
317 2022 Renault CLIO 1.0 Antalya 8.5.2026 15:30 1.000 TL
318 2017 Ford FOCUS 1.5 TDCI Şehir Seç 8.5.2026 15:30 1.000 TL
319 2004 Hyundai ACCENT 1.6 İstanbul 8.5.2026 15:30 1.000 TL
320 2012 Fiat/Tofaş DOBLO 1.3 M.JET Kırıkkale 8.5.2026 15:30 1.000 TL
321 2017 Fiat/Tofaş DOBLO CARGO MAXI 1.3 M.JET Çanakkale 8.5.2026 15:30 1.000 TL
322 1990 Renault L 423 BROADWAY İzmir 8.5.2026 15:30 1.000 TL
323 2012 Ford T.CONNECT KOMBI 1.8 TDCI 90 Muğla 8.5.2026 15:30 1.000 TL
324 1997 Hyundai H100 KAMYONET Adana 8.5.2026 15:30 1.000 TL
325 1992 Hyundai SONATA İstanbul 8.5.2026 15:30 1.000 TL
326 2015 Nissan QASHQAİ 1.6 DCİ BLACK EDİTİON İzmir 8.5.2026 15:30 1.000 TL
327 2025 Citroen C5 AIRCROSS 1.2 Muğla 8.5.2026 15:30 1.000 TL
328 2023 Motorsiklet PULSAR NS 200 İstanbul 8.5.2026 15:30 1.000 TL
329 2005 Nissan ALMERA 1.5 TEKNA SEDAN İstanbul 8.5.2026 15:30 1.000 TL
330 2012 Dorse/Römork 3 DİNG.DÜZ ŞASE YARI RÖMORK Mardin 8.5.2026 15:30 1.000 TL
331 2011 Ford FIESTA 1.4 Antalya 8.5.2026 15:30 1.000 TL
332 1999 Opel CORSA SWING 1.2i Kayseri 8.5.2026 15:30 1.000 TL
333 2023 Mercedes CLA 200 1.33 İstanbul 8.5.2026 15:30 1.000 TL
334 2023 Mini COOPER SE ELEKTRIK INSPIRED İstanbul 8.5.2026 15:30 1.000 TL
335 2022 Ford TRANSIT COURIER VAN 1.5 TDCI TREND Ankara 8.5.2026 15:30 1.000 TL
336 2024 Motorsiklet MCX 125 İstanbul 8.5.2026 15:30 1.000 TL
337 2006 Alfa Romeo 147 1.6 Şehir Seç 8.5.2026 15:30 1.000 TL
338 2021 Honda DIO 110 Konya 8.5.2026 15:30 1.000 TL
339 2024 Dorse/Römork ÖZTREYLER YARI RÖMORK Adana 8.5.2026 15:30 1.000 TL
340 2008 Fiat/Tofaş LINEA 1.4 Trabzon 8.5.2026 15:30 1.000 TL
341 1997 Toyota COROLLA 1.6 XLi (Y) Muğla 8.5.2026 15:30 1.000 TL
342 2024 Fiat/Tofaş EGEA 1.4 FIRE Ankara 8.5.2026 15:30 1.000 TL
343 2022 Fiat/Tofaş DOBLO CARGO MAXI 1.6 M.JET İstanbul 8.5.2026 15:30 1.000 TL
344 2009 Mazda 3 1.6 Şehir Seç 8.5.2026 15:30 1.000 TL
345 2020 Ford TOURNEO COURIER KOMBI 1.5 TDCI100 İzmir 8.5.2026 15:30 1.000 TL
346 2024 Honda DIO 110 Ankara 8.5.2026 15:30 1.000 TL
347 2014 Peugeot BOXER KAMYONET Şehir Seç 8.5.2026 15:30 1.000 TL
348 2016 Renault MASTER PANELVAN 2.3 Tekirdağ 8.5.2026 15:30 1.000 TL
349 2024 Motorsiklet APACHE RTR 200 Şehir Seç 8.5.2026 15:30 1.000 TL
350 2024 Motorsiklet ADX 125 İstanbul 8.5.2026 15:30 1.000 TL
351 1998 Opel CORSA SWING 1.4 Şehir Seç 8.5.2026 15:30 1.000 TL
352 1997 Ford ESCORT CL 1.6 Şehir Seç 8.5.2026 15:30 1.000 TL
353 2017 Hyundai ACCENT BLUE 1.4 D-CVVT Şehir Seç 8.5.2026 15:30 1.000 TL
354 2021 Ford TRANSIT KAMYONET 350M Hatay 8.5.2026 15:30 1.000 TL
355 1999 Peugeot 406 SV 2.0 Muğla 8.5.2026 15:30 1.000 TL
356 2023 Motorsiklet TRX 12 İstanbul 8.5.2026 15:30 1.000 TL
357 2020 Ford TRANSIT K.NET CIFT K. 350M 170 Hatay 8.5.2026 15:30 1.000 TL
358 2024 Honda ACTIVA 125 İstanbul 8.5.2026 15:30 1.000 TL
359 2014 Renault CLIO HB 1.5 DCI 75 İzmir 8.5.2026 15:30 1.000 TL
360 2019 Kia SPORTAGE 1.6 DIZEL 136 DCT İstanbul 8.5.2026 15:30 1.000 TL
361 2017 Citroen C4 CACTUS 1.6 E-HDI 92 Antalya 8.5.2026 15:30 1.000 TL
362 2025 Dacia SANDERO 1.0 TCE 90 Antalya 8.5.2026 15:30 1.000 TL
363 2015 Bmw 118i 1.6 Bursa 8.5.2026 15:30 1.000 TL
364 2023 Cupra FORMENTOR 1.5 TSI Ankara 8.5.2026 15:30 1.000 TL
365 2020 Fiat/Tofaş EGEA HB 1.6 M.JET Manisa 8.5.2026 15:30 1.000 TL
366 2021 Peugeot 208 1.2 PURETECH Ankara 8.5.2026 15:30 1.000 TL
367 2023 Mini COOPER COUNTRYMAN 1.5 İstanbul 8.5.2026 15:30 1.000 TL
368 2024 Motorsiklet 125 DRIFT L İstanbul 8.5.2026 15:30 1.000 TL
369 1993 Fiat/Tofaş DOGAN SLX Isparta 8.5.2026 15:30 1.000 TL
370 2006 Ford FIESTA 1.4 TDCi Denizli 8.5.2026 15:30 1.000 TL
371 2008 Ford FOCUS 1.6i Antalya 8.5.2026 15:30 1.000 TL
372 2023 Traktör DEUTZ-FAHR 7250 Konya 8.5.2026 15:30 1.000 TL
373 2024 Peugeot 2008 1.2 PURETECH İzmir 8.5.2026 15:30 1.000 TL
374 2014 Fiat/Tofaş LINEA 1.4 Erzurum 8.5.2026 15:30 1.000 TL
375 2015 Skoda RAPID 1.4 TDI İstanbul 8.5.2026 15:30 1.000 TL
376 2020 Renault MEGANE SEDAN 1.5 BLUEDCI Ankara 8.5.2026 15:30 1.000 TL
377 2024 Nissan QASHQAI 1.3 DIG-T Bursa 8.5.2026 15:30 1.000 TL
378 2015 Ford FOCUS 1.5 TDCI 120 Ankara 8.5.2026 15:30 1.000 TL
379 2025 Motorsiklet DERYA PRO İzmir 8.5.2026 15:30 1.000 TL
380 2023 Togg T10X Adana 8.5.2026 15:30 1.000 TL
381 2024 Renault TRAFIC GRAND CONFORT 2.0 Diyarbakır 8.5.2026 15:30 1.000 TL
382 2024 Motorsiklet YZF250A Manisa 8.5.2026 15:30 1.000 TL
383 2014 Dacia LOGAN 1.5 DCI İzmir 8.5.2026 15:30 1.000 TL
384 2006 Ford FIESTA 1.4 TDCi İzmir 8.5.2026 15:30 1.000 TL
385 2016 Ford TRANSIT COURIER VAN 1.5 TDCI Ankara 8.5.2026 15:30 1.000 TL
386 2025 Scania CEKICI S500 Mersin 8.5.2026 15:30 1.000 TL
387 2013 Renault CLIO HB 1.2 Kocaeli 8.5.2026 15:30 1.000 TL
388 2012 Peugeot 107 1.0 TRENDY Yalova 8.5.2026 15:30 1.000 TL
389 2011 Mercedes CEKICI AXOR 1840 LS Mersin 8.5.2026 15:30 1.000 TL
390 2015 Peugeot 301 1.6 HDI İstanbul 8.5.2026 15:30 1.000 TL
391 2016 Renault MASTER 16+1 İstanbul 8.5.2026 15:30 1.000 TL
392 2014 Toyota AURIS 1.6 İstanbul 8.5.2026 15:30 1.000 TL
393 2021 Citroen C4 1.2 PURETECH Diyarbakır 8.5.2026 15:30 1.000 TL
394 2011 Renault FLUENCE 1.5 DCI Yozgat 8.5.2026 15:30 1.000 TL
395 2016 Skoda OCTAVIA 1.6 TDI CR Bursa 8.5.2026 15:30 1.000 TL
396 2024 Motorsiklet TVS APACHE RTR 200 4V E5 Kocaeli 8.5.2026 15:30 1.000 TL
397 2011 Ford T. CONNECT KOMBI K210 S 1.8 TDCi Bursa 8.5.2026 15:30 1.000 TL
398 2018 Toyota COROLLA 1.4 D-4D Samsun 8.5.2026 15:30 1.000 TL
399 2016 Volkswagen PASSAT 1.6 TDI Gaziantep 8.5.2026 15:30 1.000 TL
400 1998 Fiat/Tofaş PALIO 1.4 EL Kayseri 8.5.2026 15:30 1.000 TL
401 2017 Renault MEGANE SEDAN 1.5 DCI Antalya 8.5.2026 15:30 1.000 TL
402 2017 Renault CAPTUR 1.5 DCI Bursa 8.5.2026 15:30 1.000 TL
403 2014 Volkswagen JETTA 1.6 TDI Gaziantep 8.5.2026 15:30 1.000 TL
404 1998 Fiat/Tofaş SAHIN S Niğde 8.5.2026 15:30 1.000 TL
405 2003 Dorse/Römork SERİN YARI RÖMORK 3DPL İstanbul 8.5.2026 15:30 1.000 TL
406 2017 Skoda KODIAQ 1.4 TSI 150 ACT Antalya 8.5.2026 15:30 1.000 TL
407 2017 Renault CLIO HB 1.5 DCI 75 Ankara 8.5.2026 15:30 1.000 TL
408 2005 Fiat/Tofaş PALIO Mardin 8.5.2026 15:30 1.000 TL
409 2024 Motorsiklet STMAX LINDY 125 Manisa 8.5.2026 15:30 1.000 TL
410 1999 Nissan PRIMERA 1.6 SPECIAL EDITION Konya 8.5.2026 15:30 1.000 TL
411 2025 Honda SH125i Kocaeli 8.5.2026 15:30 1.000 TL
412 2012 Fiat/Tofaş PUNTO 1.3 MULTIJET (75) Kahramanmaraş 8.5.2026 15:30 1.000 TL
413 1998 Renault R9 BROADWAY 1.4 Şanlıurfa 8.5.2026 15:30 1.000 TL
414 2013 Renault CLIO HB 1.2 75 Isparta 8.5.2026 15:30 1.000 TL
415 2023 Motorsiklet NEW LİGHT PRO 125 Hatay 8.5.2026 15:30 1.000 TL
416 2015 Ford FOCUS III MCA 1.6 TDCI Diyarbakır 8.5.2026 15:30 1.000 TL
417 2006 Opel ASTRA HB 1.3 CDTi ENJOY İzmir 8.5.2026 15:30 1.000 TL
418 1998 Proton PERSONA 1.3 Şehir Seç 8.5.2026 15:30 1.000 TL
419 2017 Peugeot 301 1.6 HDI Kayseri 8.5.2026 15:30 1.000 TL
420 2001 Iveco 120-14 Manisa 8.5.2026 15:30 1.000 TL
421 2004 Peugeot PARTNER 190 C 1.9D Şehir Seç 8.5.2026 15:30 1.000 TL
422 1997 Toyota COROLLA 1.6 XEi Sivas 8.5.2026 15:30 1.000 TL
423 2008 Volkswagen CADDY KOMBI 1.9 TDI Antalya 8.5.2026 15:30 1.000 TL
424 2006 Hyundai ACCENT 1.5 CRDI ADMIRE İstanbul 8.5.2026 15:30 1.000 TL
425 2017 Toyota YARIS 1.5 İstanbul 8.5.2026 15:30 1.000 TL
426 2004 Fiat/Tofaş ALBEA 1.2 16V EL Uşak 8.5.2026 15:30 1.000 TL
427 2012 Kia SPORTAGE 2.0 DSL Trabzon 8.5.2026 15:30 1.000 TL
428 2006 Alfa Romeo 156 1.6 TS Ankara 8.5.2026 15:30 1.000 TL
429 2017 Mercedes C 200 d 1.6 D SEDAN Bursa 8.5.2026 15:30 1.000 TL
430 2023 Ford TOURNEO COURIER KOMBI 1.5 TDCI Kayseri 8.5.2026 15:30 1.000 TL
431 2024 Motorsiklet JUPİTER 10 Antalya 8.5.2026 15:30 1.000 TL
432 2024 Honda PCX 125 Muğla 8.5.2026 15:30 1.000 TL
433 2022 Volkswagen POLO 1.0 TSI Kocaeli 8.5.2026 15:30 1.000 TL
434 2003 Volkswagen PASSAT 1.9 TDI COMFORTLINE (130) Karaman 8.5.2026 15:30 1.000 TL
435 2014 Renault CLIO HB 1.5 DCI 75 Antalya 8.5.2026 15:30 1.000 TL
436 2013 Fiat/Tofaş LINEA 1.3 MULTIJET 95 Karabük 8.5.2026 15:30 1.000 TL
437 2015 Volkswagen GOLF VII 1.2 TSI BMT 105 Balıkesir 8.5.2026 15:30 1.000 TL
438 2023 Dorse/Römork KRONE SDP27 Kocaeli 8.5.2026 15:30 1.000 TL
439 2017 Renault MEGANE SEDAN 1.5 DCI Şehir Seç 8.5.2026 15:30 1.000 TL
440 2024 Motorsiklet LCG 125 Antalya 8.5.2026 15:30 1.000 TL
441 2011 Skoda FABIA HB 1.4 İzmir 8.5.2026 15:30 1.000 TL
442 1993 Fiat/Tofaş SAHiN 1.6 Ankara 8.5.2026 15:30 1.000 TL
443 2023 Motorsiklet EGE 50 Isparta 8.5.2026 15:30 1.000 TL
444 2000 Lada 2110 VEGA 1.5i İzmir 8.5.2026 15:30 1.000 TL
445 2025 Motorsiklet AR 125 Adana 8.5.2026 15:30 1.000 TL
446 2021 Renault EXPRESS VAN JOY 1.5 BLUEDCI Konya 8.5.2026 15:30 1.000 TL
447 2024 Motorsiklet R250 Mersin 8.5.2026 15:30 1.000 TL
448 2022 Ford TRANSIT VAN 350ED Tekirdağ 8.5.2026 15:30 1.000 TL
449 1987 Renault 12 TSW TOROS Şehir Seç 8.5.2026 15:30 1.000 TL
450 2020 Opel ASTRA NB 1.4 140 Muğla 8.5.2026 15:30 1.000 TL
451 2024 Motorsiklet SRV 250 VS Denizli 8.5.2026 15:30 1.000 TL
452 2023 Citroen BERLINGO VAN 1.5 BLUEHDI Denizli 8.5.2026 15:30 1.000 TL
453 2024 Motorsiklet SRK 125 R Aksaray 8.5.2026 15:30 1.000 TL
454 2001 Fiat/Tofaş SAHIN 1.6 i.e. Şehir Seç 8.5.2026 15:30 1.000 TL
455 2023 Ford TOURNEO COURIER KOMBI 1.5 TDCI 100 Antalya 8.5.2026 15:30 1.000 TL
456 2000 Renault CLIO SYM. 1,4 RNA Kayseri 8.5.2026 15:30 1.000 TL
457 1986 Mercedes 200 Şehir Seç 8.5.2026 15:30 1.000 TL
458 1996 Renault R9 BROADWAY 1.4 Ankara 8.5.2026 15:30 1.000 TL
459 2007 Renault MEGANE II SEDAN 1.6 Kayseri 8.5.2026 15:30 1.000 TL
460 2013 Motorsiklet SEYHAN 150 C Ankara 8.5.2026 15:30 1.000 TL
461 2021 Honda NSS250A FORZA 250 Şehir Seç 8.5.2026 15:30 1.000 TL
462 1998 Fiat/Tofaş UNO SX İE İzmir 8.5.2026 15:30 1.000 TL
463 2012 Volvo S60 1.6 DRIVE Şehir Seç 8.5.2026 15:30 1.000 TL
464 2005 Kia SPORTAGE 2.0 D EX OV Antalya 8.5.2026 15:30 1.000 TL
465 2013 Ford FIESTA 1.5 TDCI 75 Denizli 8.5.2026 15:30 1.000 TL
466 2002 Renault CLİO SYMBOL 1.4 Sakarya 8.5.2026 15:30 1.000 TL
467 1993 Renault R9 BROADWAY 1.4 Isparta 8.5.2026 15:30 1.000 TL
468 2021 Honda DİO 110 Denizli 8.5.2026 15:30 1.000 TL
469 2020 Ford TRANSİT COURIER 1.5 TDCİ 75 Antalya 8.5.2026 15:30 1.000 TL
470 1999 Fiat/Tofaş KARTAL 1.6 Antalya 8.5.2026 15:30 1.000 TL
471 1991 Mazda 323 1.6 İzmir 8.5.2026 15:30 1.000 TL
472 2014 Hyundai ACCENT BLUE 1.6 CRDI İstanbul 8.5.2026 15:30 1.000 TL
473 2013 Volkswagen JETTA 1.4 TSI (122) Kırklareli 8.5.2026 15:30 1.000 TL
474 2014 Volkswagen CADDY 1.6 TDI (102) Eskişehir 8.5.2026 15:30 1.000 TL
475 2016 Honda CİVİC SEDAN 1.6 125 Ankara 8.5.2026 15:30 1.000 TL
476 2015 Renault CLİO 1.5 DCİ 75 Adana 8.5.2026 15:30 1.000 TL
477 2017 Renault CLIO 1.2 TCE Antalya 8.5.2026 15:30 1.000 TL
478 2016 Skoda OCTAVIA 1.6 TDI Van 8.5.2026 15:30 1.000 TL
479 2010 Renault FLUENCE EXPRESSION 1.5 DCI Şehir Seç 8.5.2026 15:30 1.000 TL
480 2023 Skoda SUPERB 1.5 TSI 150 DSG İzmir 8.5.2026 15:30 1.000 TL
481 2005 Opel COMBO 1.3 CDTi Konya 8.5.2026 15:30 1.000 TL
482 1997 Fiat/Tofaş TIPO 2.0 i.e Mardin 8.5.2026 15:30 1.000 TL
483 2009 Bmc CEKICI PRO 827 (4x2) ZCX Şehir Seç 8.5.2026 15:30 1.000 TL
484 1998 Renault R9 BROADWAY 1.4 Malatya 8.5.2026 15:30 1.000 TL
485 1974 Renault R12 TSW TOROS Afyonkarahisar 8.5.2026 15:30 1.000 TL
486 1993 Fiat/Tofaş DOĞAN SL Ankara 8.5.2026 15:30 1.000 TL
487 2024 Honda NSS250A FORZA 250 Muğla 8.5.2026 15:30 1.000 TL
488 1996 Fiat/Tofaş DOĞAN SLX Şehir Seç 8.5.2026 15:30 1.000 TL
489 2021 Renault CLIO TOUCH 1.0 TCE X-TRONIC 90 Siirt 8.5.2026 15:30 1.000 TL
490 2005 Fiat/Tofaş PALIO 1.2 16V Ankara 8.5.2026 15:30 1.000 TL
491 1995 Skoda FELICIA 1.3 Kayseri 8.5.2026 15:30 1.000 TL
492 2012 Volvo S60 DRIVE POWERSHIFT 1.6 İstanbul 8.5.2026 15:30 1.000 TL
493 2008 Volkswagen JETTA 1.6 FSI COMFORTLINE (115) Ankara 8.5.2026 15:30 1.000 TL
494 2016 Renault SYMBOL 1.5 DCI 90 İzmir 8.5.2026 15:30 1.000 TL
495 2017 Ford FOCUS 1.5 TDCI 120 Batman 8.5.2026 15:30 1.000 TL
496 1988 Fiat/Tofaş SAHIN 1.6 Kayseri 8.5.2026 15:30 1.000 TL
497 2013 Fiat/Tofaş DOBLO COMBI 1.3 90 M.JET PREMIO BLACK Kayseri 8.5.2026 15:30 1.000 TL
498 2015 Renault SYMBOL 1.2 16V 75 Kayseri 8.5.2026 15:30 1.000 TL
499 2017 Citroen C-ELYSEE 1.6 HDI 92 ATTRACTION Kayseri 8.5.2026 15:30 1.000 TL
500 2013 Bmw 320D 2.0 SEDAN 184 OV Eskişehir 8.5.2026 15:30 1.000 TL
501 2020 Fiat/Tofaş EGEA 1.3 MULTIJET SEDAN EASY Antalya 8.5.2026 15:30 1.000 TL
502 2024 Renault MEGANE JOY 1.3 TCE 140 SEDAN İstanbul 8.5.2026 15:30 1.000 TL
503 2023 Hyundai I20 1.4 MPI JUMP İzmir 8.5.2026 15:30 1.000 TL
504 2023 Dacia SANDERO STEPWAY 1.0 TCE İstanbul 8.5.2026 15:30 1.000 TL
505 2024 Fiat/Tofaş EGEA SEDAN EASY 1.6 M.JET Samsun 8.5.2026 15:30 1.000 TL
506 2002 Fiat/Tofaş DOĞAN 1.6 SEDAN İstanbul 8.5.2026 15:30 1.000 TL
507 2024 Motorsiklet CFMOTO 250 SR Şanlıurfa 8.5.2026 15:30 1.000 TL
508 1985 Renault L423 Kayseri 8.5.2026 15:30 1.000 TL
509 2024 Motorsiklet CFMOTO 250 SR İstanbul 8.5.2026 15:30 1.000 TL
510 2006 Opel COMBO 1.3 Samsun 8.5.2026 15:30 1.000 TL
511 2013 Mitsubishi L200 2,5 Çanakkale 8.5.2026 15:30 1.000 TL
512 2015 Renault KADJAR 1.6 Gaziantep 8.5.2026 15:30 1.000 TL
513 2021 Renault CLIO 1.0 İstanbul 8.5.2026 15:30 1.000 TL
514 2024 Honda CITY 1.5 Samsun 8.5.2026 15:30 1.000 TL
515 2020 Toyota COROLLA 1.8 HYBRID İstanbul 8.5.2026 15:30 1.000 TL
516 2013 Bmw 520i 1.6 İstanbul 8.5.2026 15:30 1.000 TL
517 2006 Bmc KAMYON PRO 522 (6x2) LHT Şehir Seç 8.5.2026 16:30 50.000 TL
518 2018 Skoda OCTAVIA 1.6 TDI İstanbul 8.5.2026 16:30 501.000 TL
519 2024 Dacia DUSTER EXPRESSION 1.3 TCE 150 EDC Kahramanmaraş 8.5.2026 16:30 670.000 TL
520 1985 Renault 9 GTE BROADWAY İzmir 8.5.2026 16:30 500 TL
521 2020 Peugeot 2008 1.2 PURETECH 130 Eskişehir 8.5.2026 16:30 738.000 TL
522 2022 Bmw 520i SEDAN 1.6 Sakarya 8.5.2026 16:30 2.500.500 TL
523 2017 Fiat/Tofaş LINEA POP 1.3 MULTIJET 95 İstanbul 8.5.2026 16:30 350.000 TL
524 2022 Fiat/Tofaş FIORINO COMBI 1.3 MULTIJET Ankara 8.5.2026 16:30 351.000 TL
525 2024 Hyundai BAYON 1.4 MPI ELITE AT İstanbul 8.5.2026 16:30 925.250 TL
526 2015 Volkswagen PASSAT 1.6 TDI BMT 120 COMFORTLINE DSG Ordu 8.5.2026 16:30 915.250 TL
527 2023 Chery OMODA 5 LUXURY Çorum 8.5.2026 16:30 859.250 TL
528 2025 Fiat/Tofaş SCUDO COMBI STD (L2) LOUNGE 2.0 MJ 145 Gaziantep 8.5.2026 16:30 784.250 TL
529 2025 Fiat/Tofaş DOBLO COMBI EASY 1.5 130 BLUEHDI FL AT Kahramanmaraş 8.5.2026 16:30 779.250 TL
530 2025 Togg T10F V2 RWD UZUN MENZIL 160KW Konya 8.5.2026 16:30 777.250 TL
531 2022 Hyundai i20 1.4 MPI İstanbul 8.5.2026 16:30 769.250 TL
532 2023 Renault CLIO EVOLUTION 1.0 TCE X-TRONIC 90 İstanbul 8.5.2026 16:30 721.250 TL
533 2016 Skoda FABIA 1.2 TSI 110 DSG GREEN TEC STYLE Konya 8.5.2026 16:30 529.250 TL
534 2016 Dacia SANDERO STEPWAY 1.5 DCI 90 EURO5 Konya 8.5.2026 16:30 445.250 TL
535 2006 Ford FOCUS 1.6 TDCİ TREND Adana 8.5.2026 16:30 500 TL
536 2010 Audi A4 2.0 TDI İstanbul 8.5.2026 16:30 200.500 TL
537 2020 Honda ACTIVA S 125 İzmir 8.5.2026 16:30 1.000 TL
538 2020 Skoda SCALA PREMIUM 1.6 TDI 115 DSG Adana 8.5.2026 16:30 1.000 TL
539 2023 Motorsiklet DOMINAR D 250 Ankara 8.5.2026 16:30 1.000 TL
540 1990 Renault BROADWAY 1.4 Balıkesir 8.5.2026 16:30 1.000 TL
541 2019 Peugeot 3008 1.5 BLUEHDI Antalya 8.5.2026 16:30 1.000 TL
542 2020 Citroen C3 AIRCROSS.1.5BLUEHDI Kayseri 8.5.2026 16:30 1.000 TL
543 1992 Renault 12 TSW TOROS Şehir Seç 8.5.2026 16:30 1.000 TL
544 1990 Fiat/Tofaş KARTAL 1.6 İzmir 8.5.2026 16:30 1.000 TL
545 2005 Ford T. CONNECT KOMBI 1.8 TDCi Kırklareli 8.5.2026 16:30 1.000 TL
546 1998 Fiat/Tofaş DOĞAN Hatay 8.5.2026 16:30 1.000 TL
547 2009 Renault MEGANE II WAGON AUTHENTIQUE 1.5 DCI İstanbul 8.5.2026 16:30 1.000 TL
548 2025 Opel MOKKA 1.2 130 Konya 8.5.2026 16:30 1.000 TL
549 2015 Toyota VERSO 1.6 D-4D Erzurum 8.5.2026 16:30 3.500 TL
550 2024 Fiat/Tofaş EGEA SEDAN EASY 1.6 M.JET Tekirdağ 8.5.2026 16:30 422.500 TL
551 2013 Renault SYMBOL JOY 1.5 DCI Muğla 8.5.2026 16:30 1.500 TL
552 2017 Skoda SUPERB 1.6 TDI Çanakkale 8.5.2026 16:30 1.000 TL
553 1997 Kia BESTA 2.2 Rize 8.5.2026 16:30 1.000 TL
554 2013 Ford FOCUS 1.6 TDCİ Konya 8.5.2026 16:30 4.000 TL
555 2009 Volkswagen TIGUAN 2.0 TDI İzmir 8.5.2026 16:30 3.500 TL
556 2024 Motorsiklet 250 SR Adana 8.5.2026 16:30 1.000 TL
557 2023 Audi A5 SPORTBACK 45 TFSI QUATTRO S LINE Ankara 8.5.2026 16:30 53.500 TL
558 2016 Dorse/Römork ERDOĞAN ÖZ YARI RÖMORK Konya 8.5.2026 16:30 1.000 TL
559 2012 Peugeot PARTNER TEPEE PREMUIM 1.6 HDI (110) Sivas 8.5.2026 16:30 130.000 TL
560 2024 Motorsiklet 250 NK Balıkesir 8.5.2026 16:30 1.000 TL
561 2011 Volkswagen SCIROCCO 1.4 TSI BMT 150 SPORTLINE DSG Konya 8.5.2026 16:30 500 TL
562 1992 Fiat/Tofaş KARTAL L Çankırı 8.5.2026 16:30 1.000 TL
563 2022 Fiat/Tofaş EGEA HB STREET 1.3 M.JET 95 E6D İstanbul 8.5.2026 16:30 452.000 TL
564 2022 Motorsiklet HONDA PCX 125 DLX İstanbul 8.5.2026 16:30 1.000 TL
565 2025 Volvo EX40 S.MOTOR EXT.RNG ULT. BLACK E.ULT 150KW İstanbul 8.5.2026 16:30 995.000 TL
566 2025 Motorsiklet REVOLT RSX4 125 Ankara 8.5.2026 16:30 1.000 TL
567 1993 Opel ASTRA CABRIO 2.0i Kocaeli 8.5.2026 16:30 1.000 TL
568 2017 Peugeot 301 ALLURE 1.6 HDI 92 Yalova 8.5.2026 16:30 1.000 TL
569 2020 Mercedes E 200 d FL EDITION 1 EXCLUSIVE İstanbul 8.5.2026 16:30 1.101.000 TL
570 2016 Motorsiklet YAMAHA YP 250 İstanbul 8.5.2026 16:30 1.000 TL
571 2006 Peugeot PARTNER 1.9D CONFORT Denizli 8.5.2026 16:30 1.000 TL
572 2019 Motorsiklet MONDIAL 50 TT Aydın 8.5.2026 16:30 1.000 TL
573 2024 Motorsiklet VESPA NEW GTS SUPERSPORT 310 İzmir 8.5.2026 16:30 65.000 TL
574 2017 Renault CLIO HB TOUCH 1.5 DCI 90 S&S Tekirdağ 8.5.2026 16:30 1.000 TL
575 2012 Ford RANGER XLT 2.2 TDCI 150 ÇİFT KABİN KAMYONET Antalya 8.5.2026 16:30 302.000 TL
576 2022 Motorsiklet YAMAHA YZF R25 Konya 8.5.2026 16:30 1.000 TL
577 2012 Volkswagen TRANSPORTER CITYVAN 2.0 TDI 102 5+1 LWB Konya 8.5.2026 16:30 1.000 TL
578 2018 Dorse/Römork SEMI-?IFT AKSLI İzmir 8.5.2026 16:30 5.500 TL
579 2025 Mercedes ACTROS 1848 LS 4x2 FL Trabzon 8.5.2026 16:30 102.500 TL
580 2012 Ford FIESTA TITANIUM 5K 1.4i OV İstanbul 8.5.2026 16:30 30.000 TL
581 2013 Mercedes AXOR 1840 LS E5 Mersin 8.5.2026 16:30 1.000 TL
582 2011 Man TGX 18.440 4x2 BLS XLX Ankara 8.5.2026 16:30 1.000 TL
583 2025 Audi A5 SEDAN 2.0 TFSI QUATTRO 204 STRONIC İstanbul 8.5.2026 16:30 1.500 TL
584 2024 Ford TRAN.ICA3 350L VAN 11M3 2.0 165 UZUN TREND Ankara 8.5.2026 16:30 2.500 TL
585 2020 Audi A3 SEDAN 1.5 35 TFSI 150 DYNAMIC STRONIC PI Ankara 8.5.2026 16:30 525.000 TL
586 1984 Renault 12 TSW İzmir 8.5.2026 16:30 500 TL
587 2021 Honda CIVIC 4D ELEGANCE ECO 1.6 125 OV Ankara 8.5.2026 16:30 1.500 TL
588 2024 Motorsiklet MONDIAL NEVADA İstanbul 8.5.2026 16:30 500 TL
589 2015 Citroen C-ELYSEE 1.6 HDI 92 CONFORT İstanbul 8.5.2026 16:30 1.000 TL
590 2014 Fiat/Tofaş LINEA ACTIVE PLUS 1.3 MULTIJET 95 E5 İstanbul 8.5.2026 16:30 500 TL
591 2012 Ford TRANSIT 330 S İstanbul 8.5.2026 16:30 1.000 TL
592 1993 Lada SAMARA 1.5 HB Konya 8.5.2026 16:30 500 TL
593 2024 Ford PUMA TITANIUM HIBRIT 1.0 ECOBOOST 125 7AT İstanbul 8.5.2026 16:30 1.000 TL
594 2020 Motorsiklet RKS SPONTINI 110 (GST110T-14) İstanbul 8.5.2026 16:30 500 TL
595 2023 Motorsiklet MONDIAL FURY 110 Adana 8.5.2026 16:30 500 TL
596 2010 Bmw 116I 1.6 5 KAPI İstanbul 8.5.2026 16:30 1.000 TL
597 2013 Motorsiklet DUCATI 899 PANIGALE İstanbul 8.5.2026 16:30 500 TL
598 2017 Renault CLIO HB TOUCH 1.5 DCI EDC 90 İstanbul 8.5.2026 16:30 500 TL
599 2007 Tata INDIGO 1.4 TDI Kocaeli 8.5.2026 16:30 500 TL
600 1993 Toyota COROLLA 1.3 XL İstanbul 8.5.2026 16:30 500 TL
601 2010 Hyundai I20 1.2 MPI TEAM İstanbul 8.5.2026 16:30 500 TL
602 2002 Peugeot 307 1.6 XR Manisa 8.5.2026 16:30 500 TL
603 2000 Fiat/Tofaş BRAVA 1.6 SX Kayseri 8.5.2026 16:30 1.000 TL
604 2015 Renault SYMBOL 1.5 DCI JOY İstanbul 8.5.2026 16:30 500 TL
605 2024 Renault AUSTRAL TECHNO ESPRIT ALPINE E-TECH FH 200 İstanbul 8.5.2026 16:30 1.000 TL
606 2022 Motorsiklet MONDIAL 125 DRIFT L CBS Edirne 8.5.2026 16:30 500 TL
607 2011 Hyundai ACCENT ERA 1.4 START Ankara 8.5.2026 16:30 500 TL
608 2022 Motorsiklet APACHI XRS İstanbul 8.5.2026 16:30 500 TL
609 2011 Motorsiklet KUBA XY100E Hatay 8.5.2026 16:30 500 TL
610 2005 Renault TRAFIC 1.9 DCI İstanbul 8.5.2026 16:30 500 TL
611 2018 Motorsiklet SYM XPRO 125 İstanbul 8.5.2026 16:30 500 TL
612 2018 Motorsiklet KUBA EGE 50 Antalya 8.5.2026 16:30 500 TL
613 2005 Renault CLIO 1.2 AUTHENTIQE Kayseri 8.5.2026 16:30 2.000 TL
614 1997 Renault R9 BROADWAY 1.4 Sivas 8.5.2026 16:30 2.000 TL
615 2023 Honda ADV 350 İstanbul 8.5.2026 16:30 53.500 TL
616 2000 Ford TRANSIT MINIBUS 14+1 Sinop 8.5.2026 16:30 2.500 TL
617 2010 Fiat/Tofaş FIORINO COMBI 1.3 MULTIJET Ankara 8.5.2026 16:30 100.000 TL
618 2010 Renault CLIO GRAND TOUR 1.5 DCI İstanbul 8.5.2026 16:30 1.000 TL
619 2020 Mercedes C 200 D İzmir 8.5.2026 16:30 1.500 TL
620 2007 Fiat/Tofaş ALBEA 1.4 FIRE ACTIVE Muğla 8.5.2026 16:30 500 TL
621 2025 Motorsiklet SKYTOWN 125 ABS İstanbul 8.5.2026 16:30 1.000 TL
622 1994 Opel ASTRA 1.4 HB Kayseri 8.5.2026 16:30 1.000 TL
623 2024 Motorsiklet SAFARI 50 Afyonkarahisar 8.5.2026 16:30 1.000 TL
624 2023 Honda ACTIVA 125 İzmir 8.5.2026 16:30 1.000 TL
625 2023 Honda DIO İstanbul 8.5.2026 16:30 1.000 TL
626 2024 Motorsiklet 250 RR Adana 8.5.2026 16:30 1.000 TL
627 2023 Motorsiklet SPONTINI 110 (GST110T-14) İzmir 8.5.2026 16:30 1.000 TL
628 2024 Motorsiklet 125 DRIFT L CBS Eskişehir 8.5.2026 16:30 1.000 TL
629 2023 Motorsiklet MONDIAL RESSIVO 125 Bursa 9.5.2026 16:30 500 TL
630 2024 Motorsiklet HONDA NT 1100 DCT İstanbul 9.5.2026 16:30 100.000 TL
631 2016 Motorsiklet YAMAHA R25 ABS İstanbul 9.5.2026 16:30 1.000 TL
632 2025 Motorsiklet CFMOTO 250 NK İstanbul 9.5.2026 16:30 1.000 TL
633 2023 Motorsiklet YAMAHA NMAX 155 ABS İstanbul 9.5.2026 16:30 1.000 TL
634 2025 Motorsiklet KTM 250 DUKE ABS İstanbul 9.5.2026 16:30 1.000 TL
635 2002 Volvo FH 12 420 4x2 Kütahya 9.5.2026 16:30 1.000 TL
636 1994 Renault 9 GTE BROADWAY Kocaeli 9.5.2026 16:30 1.000 TL
637 2014 Renault FLUENCE ICON 1.5 DCI 110 EDC Mardin 9.5.2026 16:30 2.000 TL
638 1999 Toyota COROLLA 1-3 Aydın 9.5.2026 16:30 5.000 TL
639 2024 Honda HR-V 1.5 EHEV Adana 11.5.2026 15:15 333.000 TL
640 2024 Renault MEGANE SEDAN 1.3 TCE Adana 11.5.2026 15:15 1.000 TL
641 2024 Cupra ATECA 1.5 TSI İzmir 11.5.2026 15:15 1.000 TL
642 2008 Mercedes SPRINTER 315 CDI SASI KAMYONET Uşak 11.5.2026 15:15 1.000 TL
643 2017 Toyota COROLLA 1.6 SEDAN Uşak 11.5.2026 15:15 1.000 TL
644 2020 Mini COOPER 3 KAPI 1.5 İstanbul 11.5.2026 15:15 795.000 TL
645 2024 Man TGE 3.180 PANELVAN İzmir 11.5.2026 15:15 939.000 TL
646 2025 Renault CLIO 1.0 TCE Tekirdağ 11.5.2026 15:15 616.000 TL
647 2013 Fiat/Tofaş DOBLO COMBI 1.3 M.JET Antalya 11.5.2026 15:15 93.600 TL
648 2012 Ford FIESTA 1.4 TDCİ TREND Uşak 11.5.2026 15:15 1.000 TL
649 2018 Volvo S60 1.5 T3 ADVANCE İstanbul 11.5.2026 15:15 1.000 TL
650 2014 Mercedes SPRINTER PANELVAN İstanbul 11.5.2026 15:15 1.000 TL
651 2012 Renault MEGANE SPORT TOURER 1.5 DCI İstanbul 11.5.2026 15:15 1.000 TL
652 2010 Honda CIVIC SEDAN 1.6i VTEC Isparta 11.5.2026 15:15 1.000 TL
653 2024 Toyota C-HR 1.8 HYBRID Sivas 11.5.2026 15:15 1.000 TL
654 2012 Volvo XC60 2.0 D3 Batman 11.5.2026 15:15 1.000 TL
655 2023 Volkswagen POLO 1.0 IMPRESSION Konya 11.5.2026 15:15 1.000 TL
656 2023 Renault MEGANE SEDAN 1.3 TCE Eskişehir 11.5.2026 15:15 1.000 TL
657 2011 Fiat/Tofaş DUCATO VAN L1H1 2.2 MULTIJET (8M3) İstanbul 11.5.2026 15:15 1.000 TL
658 2023 Renault MASTER PANELVAN Bursa 11.5.2026 15:15 1.000 TL
659 2020 Volkswagen T-ROC 1.5 TSI HIGHLINE Düzce 11.5.2026 15:15 567.000 TL
660 2021 Renault MEGANE SEDAN 1.5 BLUEDCI İzmir 11.5.2026 15:15 1.000 TL
661 2024 Toyota COROLLA CROSS 1.8 HYBRID Kocaeli 11.5.2026 15:15 3.800 TL
662 2023 Renault CLIO 1.0 TCE İstanbul 11.5.2026 15:15 1.000 TL
663 2017 Ford KUGA 1.5 TDCI Batman 11.5.2026 15:15 250.000 TL
664 2024 Bmw İX2 EDRIVE20 Bursa 11.5.2026 15:15 100.200 TL
665 2013 Ford GRAND C-MAX TITANIUM 1.6 TDCİ Antalya 11.5.2026 15:15 1.000 TL
666 2020 Hyundai KONA 1.6 CRDI İstanbul 11.5.2026 15:15 100.200 TL
667 2024 Toyota COROLLA 1.5 SEDAN İstanbul 11.5.2026 15:15 2.000 TL
668 2019 Fiat/Tofaş EGEA EASY 1.4 FIRE İstanbul 11.5.2026 15:15 1.000 TL
669 2023 Opel CORSA 1.2 Adana 11.5.2026 15:15 1.000 TL
670 2023 Mg ZS 1.0 T-GDI İstanbul 11.5.2026 15:15 115.000 TL
671 2025 Renault CAPTUR 1.3 HYBRID Tekirdağ 11.5.2026 15:15 1.000 TL
672 2024 Audi A6 SEDAN 40 TDI QUATTRO ADVANCED Kayseri 11.5.2026 15:15 3.297.000 TL
673 2025 Ford TRANSIT CUSTOM VAN Manisa 11.5.2026 15:15 1.000 TL
674 2016 Mercedes C 200 D Adana 11.5.2026 15:15 100.000 TL
675 1993 Toyota COROLLA 1.6 XL Mersin 11.5.2026 15:30 1.000 TL
676 2024 Ford T. COURIER 1.5 TDCİ 100 Adana 11.5.2026 15:30 1.000 TL
677 1997 Fiat/Tofaş UNO S Konya 11.5.2026 15:30 1.000 TL
678 2014 Volkswagen PASSAT 1.6 TDI Ankara 11.5.2026 15:30 1.000 TL
679 1992 Fiat/Tofaş TEMPRA SX Sakarya 11.5.2026 15:30 1.000 TL
680 2017 Renault CLIO HB 1.5 DCI Kocaeli 11.5.2026 15:30 1.000 TL
681 2024 Honda PCX 125 İzmir 11.5.2026 15:30 1.000 TL
682 2025 Motorsiklet VRS 125 Bursa 11.5.2026 15:30 1.000 TL
683 2019 Skoda SUPERB 1.6 TDI Diyarbakır 11.5.2026 15:30 1.000 TL
684 2015 Renault CLIO HB 1.5 DCI İzmir 11.5.2026 15:30 1.000 TL
685 2017 Motorsiklet PULSAR 200 NS İstanbul 11.5.2026 15:30 1.000 TL
686 2025 Dacia SANDERO Hatay 11.5.2026 15:30 1.000 TL
687 2024 Honda PCX 125 İstanbul 11.5.2026 15:30 1.000 TL
688 2024 Motorsiklet SRK125 R Ankara 11.5.2026 15:30 1.000 TL
689 1995 Fiat/Tofaş DOGAN SLX Burdur 11.5.2026 15:30 1.000 TL
690 1996 Renault BROADWAY 1.4 Bilecik 11.5.2026 15:30 1.000 TL
691 2003 Renault CLIO SYMBOL 1.5 DCI Bursa 11.5.2026 15:30 1.000 TL
692 1999 Peugeot PARTNER 1.9D Ankara 11.5.2026 15:30 1.000 TL
693 2022 Honda DIO 110 İstanbul 11.5.2026 15:30 1.000 TL
694 2007 Scania CEKICI R 420 CA 4x2 HNA Şehir Seç 11.5.2026 15:30 1.000 TL
695 2018 Volkswagen GOLF 1,6 TDİ Antalya 11.5.2026 15:30 1.000 TL
696 2021 Kia STONIC 1.4 İstanbul 11.5.2026 15:30 1.000 TL
697 2016 Ford TOURNEO COUIRER KOMBI 1,6 TDCİ Kayseri 11.5.2026 15:30 1.000 TL
698 2023 Chery TIGGO 7 PRO Trabzon 11.5.2026 15:30 1.000 TL
699 2024 Chery TIGGO 7 PRO Bursa 11.5.2026 15:30 1.000 TL
700 2013 Seat ALHAMRA 1.4 TSI İstanbul 11.5.2026 15:30 1.000 TL
701 2010 Bmc BELDE OTOBÜS Kayseri 11.5.2026 15:30 1.000 TL
702 2026 Hyundai i20 1.0 T 90 JUMP DCT Konya 11.5.2026 15:30 1.000 TL
703 2012 Mercedes KAMYON ATEGO 2124 Erzurum 11.5.2026 15:30 1.000 TL
704 2012 Mercedes KAMYON ATEGO 2124 Erzurum 11.5.2026 15:30 1.000 TL
705 2025 Ford TOURNEO COURIER 1.0 ECOBOOST Adana 11.5.2026 15:30 1.000 TL
706 2025 Opel MOKKA 1.2 T İstanbul 11.5.2026 15:30 1.000 TL
707 2022 Kia STONIC 1.4 100 AT Bursa 11.5.2026 15:30 1.000 TL
708 2021 Audi A4 40 TDI Batman 11.5.2026 15:30 1.000 TL
709 1986 İş Makinası KOMATSU GREYDER Erzurum 11.5.2026 15:30 1.000 TL
710 2020 Citroen C-ELYSEE 1.5 BLUEHDI Kayseri 11.5.2026 15:30 1.000 TL
711 2019 Peugeot 508 1.6 PURETECH Bursa 11.5.2026 15:30 1.000 TL
712 2011 Renault SYMBOL 1.5 DCI 65 Trabzon 11.5.2026 15:30 1.000 TL
713 2002 Nissan PRIMERA 1.6 COMFORT SEDAN Denizli 11.5.2026 15:30 1.000 TL
714 2024 Ssangyong MUSSO GRAND D2.2 4x4 Erzurum 11.5.2026 15:30 TL
715 2019 Audi Q8 3.0 50 TDI QUATTRO Mardin 11.5.2026 15:30 1.000 TL
716 2020 Fiat/Tofaş EGEA HB 1.3 M.JET Gümüşhane 11.5.2026 15:30 1.000 TL
717 2008 Volkswagen JETTA 1.6 TSI İstanbul 11.5.2026 15:30 1.000 TL
718 2025 Togg T10F V2 RWD UZUN MENZIL 160KW İstanbul 11.5.2026 15:30 1.000 TL
719 2023 Mercedes EQB 250+ Ankara 11.5.2026 15:30 1.000 TL
720 2024 Motorsiklet DASH 125 İzmir 11.5.2026 15:30 1.000 TL
721 2023 Dacia SANDERO Şehir Seç 11.5.2026 15:30 1.000 TL
722 2001 Fiat/Tofaş PALIO WEEKEND 1.4 EL Bursa 11.5.2026 15:30 1.000 TL
723 2008 Kia SPORTAGE 2.0 DSL İstanbul 11.5.2026 15:30 1.000 TL
724 2019 Ford TRANSIT VAN 2.0 ECOBLUE TDCI Kayseri 11.5.2026 15:30 1.000 TL
725 2023 Fiat/Tofaş FIORINO COMBI POP 1.3 M.JET Bursa 11.5.2026 15:30 1.000 TL
726 2019 Toyota COROLLA 1.6 Ankara 11.5.2026 15:30 1.000 TL
727 2025 Skoda SUPERB 1.5 TSI MHEV Kocaeli 11.5.2026 15:30 1.000 TL
728 2024 Motorsiklet 125 DRFİT L Mersin 11.5.2026 15:30 1.000 TL
729 2008 Ford TRANSIT CONNECT T220 S Antalya 11.5.2026 15:30 1.000 TL
730 1998 Hyundai H100 2.5 Mersin 11.5.2026 15:30 1.000 TL
731 2024 Ford TRANSIT COURIER 1.5 Muğla 11.5.2026 15:30 1.000 TL
732 2018 Fiat/Tofaş 500L 1.3 M.JET Antalya 11.5.2026 15:30 1.000 TL
733 1997 Fiat/Tofaş SAHİN S Tekirdağ 11.5.2026 15:30 1.000 TL
734 2008 Toyota AURIS 1.4 D-4D BLUE Sakarya 11.5.2026 15:30 1.000 TL
735 2023 Mercedes KAMYON AROCS 4148 İstanbul 11.5.2026 15:30 1.000 TL
736 2023 Ford 4142M Malatya 11.5.2026 15:30 1.000 TL
737 2023 Audi A3 SPORTBACK 35 TFSI İstanbul 11.5.2026 15:30 1.000 TL
738 2015 Ford KAMYON CARGO 6x2 Antalya 11.5.2026 15:30 1.000 TL
739 2024 Ford CEKICI F-MAX Eskişehir 11.5.2026 15:30 1.000 TL
740 2025 Honda SH125AD İstanbul 11.5.2026 15:30 1.000 TL
741 2000 Hyundai ACCENT 1.3 LX Sivas 11.5.2026 15:30 1.000 TL
742 2023 Hyundai İ20 1.4 MPI Adıyaman 11.5.2026 15:30 1.000 TL
743 1991 Fiat/Tofaş TEMPRA 1.6 SXA İzmir 11.5.2026 15:30 1.000 TL
744 2014 Volkswagen JETTA 1.4 TSI Ankara 11.5.2026 15:30 1.000 TL
745 2013 Opel CORSA 1,3 CDTİ Afyonkarahisar 11.5.2026 15:30 1.000 TL
746 1994 Fiat/Tofaş SAHIN 1.6 Konya 11.5.2026 15:30 1.000 TL
747 2012 Motorsiklet BEVERLY 350 SPORT TOURING İstanbul 11.5.2026 15:30 1.000 TL
748 2007 Ford FOCUS 1.6 Aksaray 11.5.2026 15:30 1.000 TL
749 2019 Peugeot 3008 1.5 BLUEHDI İstanbul 11.5.2026 15:30 1.000 TL
750 2024 Renault DUSTER 1.2 Ankara 11.5.2026 15:30 1.000 TL
751 2020 Honda PCX 125 İzmir 11.5.2026 15:30 1.000 TL
752 1995 Opel VECTRA 2.0 GLS Denizli 11.5.2026 15:30 1.000 TL
753 2003 Opel VECTRA 1.6i COMFORT Kocaeli 11.5.2026 15:30 1.000 TL
754 2014 Fiat/Tofaş LINEA 1.6 MULTIJET Konya 11.5.2026 15:30 1.000 TL
755 2013 Toyota AURIS 1.4 D-4D ACTIVE Kocaeli 11.5.2026 15:30 1.000 TL
756 2012 Citroen DS4 1.6 e-HDI Ankara 11.5.2026 15:30 1.000 TL
757 2007 Volkswagen CADDY KOMBI 1.9 TDI Mersin 11.5.2026 15:30 1.000 TL
758 2025 Ford FOCUS 1.5 ECOBLUE İstanbul 11.5.2026 15:30 1.000 TL
759 2013 Mercedes AXOR 1840 LS Diyarbakır 11.5.2026 15:30 1.000 TL
760 2011 Honda JAZZ 1.4 EX FUN i SHIFT İstanbul 11.5.2026 15:30 1.000 TL
761 2022 Fiat/Tofaş EGEA 1.4 FIRE Adana 11.5.2026 15:30 1.000 TL
762 2023 Ford KAMYON 2533 6x2 TEK YATAK YUKSEK TAVAN Ankara 11.5.2026 15:30 1.000 TL
763 2011 Mini COOPER S 1.6 COUNTRYMAN ALL4 Ankara 11.5.2026 15:30 1.000 TL
764 2022 Opel CROSSLAND 1.5 DIZEL 120 Isparta 11.5.2026 15:30 1.000 TL
765 2018 Renault MEGANE SEDAN İstanbul 11.5.2026 15:30 1.000 TL
766 2024 Skoda SUPERB 1.5 TSI HYBRİD İstanbul 11.5.2026 15:30 1.000 TL
767 2004 Peugeot 307 1.6 İstanbul 11.5.2026 15:30 1.000 TL
768 2024 Fiat/Tofaş EGEA SEDAN 1.6 MJET 130 EASY Konya 11.5.2026 15:30 1.000 TL
769 2025 Fiat/Tofaş EGEA SEDAN 1.4 FIRE EASY İstanbul 11.5.2026 15:30 1.000 TL
770 2025 Opel CORSA 1.2 Ankara 11.5.2026 15:30 1.000 TL
771 2025 Peugeot 3008 1.2 Kocaeli 11.5.2026 15:30 1.000 TL
772 2022 Toyota COROLLA 1,8 HYBRID İstanbul 11.5.2026 15:30 1.000 TL
773 2016 Nissan QASHQAI 1.6 DCI PLATINUM PREMIUM İzmir 11.5.2026 15:30 1.000 TL
774 2005 Nissan MICRA 1.2 TEKNA Kocaeli 11.5.2026 15:30 1.000 TL
775 2006 Fiat/Tofaş PALIO 1.2 DYNAMIC Artvin 11.5.2026 15:30 1.000 TL
776 2011 Volkswagen JETTA 1.2 TSI TRENDLINE Konya 11.5.2026 15:30 1.000 TL
777 2009 Honda CITY Denizli 11.5.2026 15:30 1.000 TL
778 2022 Dorse/Römork DAMPERLİ YARI RÖMORK Hatay 11.5.2026 15:30 1.000 TL
779 2024 Opel COMBO CARGO 1.5 DIZEL Antalya 11.5.2026 15:30 1.000 TL
780 2017 Renault KANGOO EXPRESS COMBI 1.5 DCI İstanbul 11.5.2026 15:30 1.000 TL
781 2012 Chevrolet CAPTIVA 2.0 D Manisa 11.5.2026 15:30 1.000 TL
782 2023 Ford TOURNEO COURIER KOMBI 1.5 TDCI İstanbul 11.5.2026 15:30 1.000 TL
783 2007 Opel CORSA 1.3 CDTİ Antalya 11.5.2026 15:30 1.000 TL
784 2020 Ford TRANSIT PANELVAN İstanbul 11.5.2026 15:30 1.000 TL
785 2004 Toyota COROLLA 1.6 TERRA İzmir 11.5.2026 15:30 1.000 TL
786 2017 Opel ASTRA 1.6 DIZEL İzmir 11.5.2026 15:30 1.000 TL
787 1991 Fiat/Tofaş ŞAHİN 1.6 Denizli 11.5.2026 15:30 1.000 TL
788 2008 Volvo S60 2.0 Erzurum 11.5.2026 15:30 1.000 TL
789 2019 Dacia DOKKER COMBI 1.5 BLUEDCI Adana 11.5.2026 15:30 1.000 TL
790 1998 Fiat/Tofaş MAREA 1.6 ELX Sivas 11.5.2026 15:30 1.000 TL
791 2016 Renault FLUENCE 1.5 DCI Aydın 11.5.2026 15:30 1.000 TL
792 2024 Hyundai TUCSON 1.6 CRDI Ordu 11.5.2026 15:30 1.000 TL
793 2021 Skoda OCTAVIA 1.5 TSI eTEC İstanbul 11.5.2026 15:30 1.000 TL
794 2012 Renault MEGANE HB 1.6 110 Hatay 11.5.2026 15:30 1.000 TL
795 2019 Motorsiklet MT-07 İstanbul 11.5.2026 15:30 1.000 TL
796 2026 Motorsiklet R125 Ankara 11.5.2026 15:30 1.000 TL
797 2011 Toyota AVENSIS 1.8 ELEGANT EXTRA MULTIDRIVE S Balıkesir 11.5.2026 15:30 1.000 TL
798 2013 Daf FT XF Mersin 11.5.2026 15:30 1.000 TL
799 1998 Kia SEPHİA 1.6 Mersin 11.5.2026 15:30 1.000 TL
800 2011 Renault SYMBOL 1.5 DCİ EXPRESSİON İstanbul 11.5.2026 15:30 1.000 TL
801 2006 Renault MEGANE 1,5 DCI Karaman 11.5.2026 15:30 1.000 TL
802 2024 Peugeot 2008 1.2 PURETECH Konya 11.5.2026 15:30 1.000 TL
803 2012 Citroen C4 1.6 e HDI CONFORT MCP Batman 11.5.2026 15:30 1.000 TL
804 2001 Renault CLIO 1,4 Ankara 11.5.2026 15:30 1.000 TL
805 2019 Volkswagen TIGUAN 1.5 TSI COMFORTLİNE İstanbul 11.5.2026 15:30 1.000 TL
806 2013 Fiat/Tofaş LINEA URBAN 1.3 MULTIJET Ankara 11.5.2026 15:30 1.000 TL
807 2018 Audi A3 CABRIO 1,5 Tokat 11.5.2026 15:30 1.000 TL
808 2021 Hyundai i20 1.4 MPI Mersin 11.5.2026 15:30 1.000 TL
809 2025 Motorsiklet 250 NK İzmir 11.5.2026 15:30 1.000 TL
810 1996 Nissan MAXIMA 2.0 SE İstanbul 11.5.2026 15:30 1.000 TL
811 2001 Renault CLIO 1.4 İstanbul 11.5.2026 15:30 1.000 TL
812 2012 Fiat/Tofaş PUNTO 1.4 Şehir Seç 11.5.2026 15:30 1.000 TL
813 1988 Renault R9 BROADWAY Zonguldak 11.5.2026 15:30 1.000 TL
814 1998 Hyundai ACCENT 1.3 Düzce 11.5.2026 15:30 1.000 TL
815 2015 Ssangyong TIVOLI D1.6 4x2 AT İstanbul 11.5.2026 15:30 1.000 TL
816 2007 Renault GRAND SCENIC 1.5 DCI Nevşehir 11.5.2026 15:30 1.000 TL
817 2018 Iveco CEKICI STRALIS HI-WAY AS440S48T/FP LT E6 Şehir Seç 11.5.2026 15:30 1.000 TL
818 2020 Hyundai i20 1.4 MPI 100 İstanbul 11.5.2026 15:30 1.000 TL
819 2019 Kia SPORTAGE 1.6 DIZEL 136 DCT İstanbul 11.5.2026 15:30 1.000 TL
820 2022 Hyundai i20 1.4 MPI 100 Nevşehir 11.5.2026 15:30 1.000 TL
821 2025 Bmw X1 XDRIVE25e 1.5 245 X-LINE İstanbul 11.5.2026 15:30 1.000 TL
822 2025 Peugeot 2008 GT 1.2 PURETECH 130 EAT8 FL Kocaeli 11.5.2026 15:30 1.000 TL
823 2025 Bmw 120 1.5 170 M SPORT İstanbul 11.5.2026 15:30 1.000 TL
824 2024 Peugeot 2008 GT 1.2 PURETECH 130 EAT8 FL Şehir Seç 11.5.2026 15:30 1.000 TL
825 2017 Jeep RENEGADE 1.6 Ankara 11.5.2026 15:30 1.000 TL
826 1998 Renault BRODWAY 1.4 Kırşehir 11.5.2026 15:30 1.000 TL
827 2013 Peugeot 301 1.6 HDi Ankara 11.5.2026 15:30 1.000 TL
828 2013 Renault FLUENCE 1.6 DCI Ankara 11.5.2026 15:30 1.000 TL
829 2015 Opel INSIGNIA NB 1.6D Afyonkarahisar 11.5.2026 15:30 1.000 TL
830 2025 Renault TRAFIC İzmir 11.5.2026 15:30 1.000 TL
831 2016 Opel INSIGNIA NB 1.6D İstanbul 11.5.2026 15:30 1.000 TL
832 2016 Volkswagen POLO 1.2 TSI Şehir Seç 11.5.2026 15:30 1.000 TL
833 2016 Fiat/Tofaş DOBLO CARGO MAXI 1.3 M.JET İstanbul 11.5.2026 15:30 1.000 TL
834 2020 Renault CLIO 1.5 BLUEDCI İstanbul 11.5.2026 15:30 1.000 TL
835 2018 Fiat/Tofaş EGEA 1.3 M.JET İstanbul 11.5.2026 15:30 1.000 TL
836 2020 Toyota COROLLA 1.6 FLAME Ankara 11.5.2026 15:30 1.000 TL
837 2023 Hyundai i20 N 1.6 T-GDI İzmir 11.5.2026 15:30 1.000 TL
838 2014 Citroen C-ELYSEE 1.2 VTI Kayseri 11.5.2026 15:30 1.000 TL
839 2008 Dacia LOGAN 1.5 DCI İzmir 11.5.2026 15:30 1.000 TL
840 2020 Hyundai i20 FL 1.4 MPI Ankara 11.5.2026 15:30 1.000 TL
841 2024 Motorsiklet TK03 İstanbul 11.5.2026 15:30 1.000 TL
842 1998 Renault MEGANE 2.0e Kayseri 11.5.2026 15:30 1.000 TL
843 2025 Toyota C-HR 1.8 HYBRID Bursa 11.5.2026 15:30 1.000 TL
844 2025 Renault MEGANE SEDAN 1.3 TCE Sivas 11.5.2026 15:30 1.000 TL
845 2017 Land Rover RANGE ROVER 3.0 D İstanbul 11.5.2026 15:30 1.000 TL
846 1994 Renault 21 OPTIMA Yozgat 11.5.2026 15:30 1.000 TL
847 2004 Ford FIESTA 1.4 COMFORT Aksaray 11.5.2026 15:30 1.000 TL
848 2024 Motorsiklet Regal Raptor X SUV 125 İstanbul 11.5.2026 15:30 TL
849 2011 Volkswagen CADDY KOMBI 1.6 TDI Manisa 11.5.2026 15:30 1.000 TL
850 2013 Motorsiklet YAMAHA FZ8 Kırklareli 11.5.2026 15:30 1.000 TL
851 2022 Ford CEKICI F-MAX Gaziantep 11.5.2026 15:30 1.000 TL
852 2000 Fiat/Tofaş SCUDO EL VAN 1.9 D Kırklareli 11.5.2026 15:30 1.000 TL
853 2021 Volkswagen CADDY KOMBI 2.0 TDI Zonguldak 11.5.2026 15:30 1.000 TL
854 2009 Karsan J9 PREMIER MAXI 14+1 MINIBUS Yalova 11.5.2026 15:30 1.000 TL
855 2017 Honda SCR 110 Antalya 11.5.2026 15:30 1.000 TL
856 2010 Hyundai ACCENT ERA 1.4 START Antalya 11.5.2026 15:30 1.000 TL
857 2024 Honda PCX 125 İstanbul 11.5.2026 15:30 1.000 TL
858 2023 Honda PCX 125 İzmir 11.5.2026 15:30 1.000 TL
859 2022 Citroen C-ELYSEE 1.5 BLUEHDI 100 Gaziantep 11.5.2026 15:30 1.000 TL
860 2012 Opel CORSA 1.2i T.PORT ESSENTIA Sakarya 11.5.2026 15:30 1.000 TL
861 2025 Motorsiklet 125 DRIFT L Ankara 11.5.2026 15:30 1.000 TL
862 2020 Motorsiklet SK 125-12A Mersin 11.5.2026 15:30 1.000 TL
863 2015 Motorsiklet MT 07 Adana 11.5.2026 15:30 1.000 TL
864 2005 Citroen C3 SX 1.4D Nevşehir 11.5.2026 15:30 1.000 TL
865 2023 Chery TIGGO 7 PRO 1.6 T-GDI Diyarbakır 11.5.2026 15:30 1.000 TL
866 2024 Motorsiklet 250 SR Eskişehir 11.5.2026 15:30 1.000 TL
867 2020 Motorsiklet MT-25 Batman 11.5.2026 15:30 1.000 TL
868 2017 Fiat/Tofaş DOBLO COMBI 1.6 M.JET EdİRne 11.5.2026 15:30 1.000 TL
869 2011 Fiat/Tofaş LINEA 1.3 MULTIJET (90) Isparta 11.5.2026 15:30 1.000 TL
870 1994 Fiat/Tofaş TEMPRA S Samsun 11.5.2026 15:30 1.000 TL
871 2018 Motorsiklet MT 07 ABS Kayseri 11.5.2026 15:30 1.000 TL
872 2018 Volkswagen PASSAT 1.6 TDI BMT Diyarbakır 11.5.2026 15:30 1.000 TL
873 2005 Motorsiklet YBR 125 Antalya 11.5.2026 15:30 1.000 TL
874 1989 Renault R 1339 Mersin 11.5.2026 15:30 1.000 TL
875 2002 Fiat/Tofaş DOGAN 1.6 İstanbul 11.5.2026 15:30 1.000 TL
876 2023 Peugeot RIFTER 1.5 BLUEHDI Tekirdağ 11.5.2026 15:30 1.000 TL
877 2023 Motorsiklet LAMBRETTA V200 SPECIAL FLEX Antalya 11.5.2026 15:30 1.000 TL
878 2000 Citroen BERLINGO 1.9 Trabzon 11.5.2026 15:30 1.000 TL
879 2004 Renault KANGOO 1.5 DCI Ankara 11.5.2026 15:30 1.000 TL
880 2006 Audi A3 1.6 FSI Şehir Seç 11.5.2026 15:30 1.000 TL
881 2013 Toyota YARIS 1.33 Elazığ 11.5.2026 15:30 1.000 TL
882 2012 Ford CEKICI CARGO 1838T 4x2 Şehir Seç 11.5.2026 15:30 1.000 TL
883 2011 Renault TRAFIC MULTIX GRAND CONFORT 2.0 DCI İstanbul 11.5.2026 15:30 1.000 TL
884 1994 Fiat/Tofaş SAHIN 1.6 Hatay 11.5.2026 15:30 1.000 TL
885 2015 Bmw 116d 5 KAPI İstanbul 11.5.2026 15:30 1.000 TL
886 2025 Honda FORZA 250 İstanbul 11.5.2026 15:30 1.000 TL
887 2005 Fiat/Tofaş DOBLO 1.2 Elazığ 11.5.2026 15:30 1.000 TL
888 2019 Seat LEON 1.6 TDI Erzurum 11.5.2026 15:30 1.000 TL
889 2013 Honda CGX 125 Hatay 11.5.2026 15:30 1.000 TL
890 2023 Motorsiklet M 502N Sivas 11.5.2026 15:30 1.000 TL
891 2003 Opel CORSA 1.7 DTI Samsun 11.5.2026 15:30 1.000 TL
892 1996 Ford ESCORT CLX 1.6 Sivas 11.5.2026 15:30 1.000 TL
893 2023 Motorsiklet TURISMO 50i Balıkesir 11.5.2026 15:30 1.000 TL
894 2023 Motorsiklet RAIDER 125 İzmir 11.5.2026 15:30 1.000 TL
895 2016 Motorsiklet JOYMAX 250i Çanakkale 11.5.2026 15:30 1.000 TL
896 2016 Nissan JUKE 1.5 DCI SKY PACK İstanbul 11.5.2026 15:30 1.000 TL
897 2021 Honda DIO 110 İstanbul 11.5.2026 15:30 1.000 TL
898 2016 Kia CERATO 1.6 DIZEL İstanbul 11.5.2026 15:30 1.000 TL
899 2004 Citroen XSARA X 1.4 HDI Şehir Seç 11.5.2026 15:30 1.000 TL
900 2011 Ford T. CONNECT KOMBI K210S 1.8 TDCİ Kayseri 11.5.2026 15:30 1.000 TL
901 2024 Motorsiklet SUPERLIGHT 125 Şehir Seç 11.5.2026 15:30 1.000 TL
902 2026 Citroen BERLINGO 1.5 BLUEHDI Şehir Seç 11.5.2026 15:30 1.000 TL
903 2024 Kia PICANTO 1.0 İstanbul 11.5.2026 15:30 1.000 TL
904 2014 Motorsiklet PULSAR 200 NS Şehir Seç 11.5.2026 15:30 1.000 TL
905 2024 Motorsiklet LTR 125 Zonguldak 11.5.2026 15:30 1.000 TL
906 2001 Renault CLIO 1.4 Şehir Seç 11.5.2026 15:30 1.000 TL
907 2015 Fiat/Tofaş DOBLO CARGO MAXI 1.3 M.JET 90 Uşak 11.5.2026 15:30 1.000 TL
908 2017 Skoda OCTAVIA 1.6 TDI Van 11.5.2026 15:30 1.000 TL
909 2016 Peugeot PARTNER TEPEE 1.6 HDI Şehir Seç 11.5.2026 15:30 1.000 TL
910 1996 Fiat/Tofaş DOĞAN SLX Mersin 11.5.2026 15:30 1.000 TL
911 1996 Fiat/Tofaş UNO SX Şehir Seç 11.5.2026 15:30 1.000 TL
912 2012 Fiat/Tofaş PUNTO 1.3 MULTIJET Ankara 11.5.2026 15:30 1.000 TL
913 2008 Kia BONGO KAMYONET K2500 Sakarya 11.5.2026 15:30 1.000 TL
914 2009 Ford FOCUS 1.6 TDCi TREND (109) Aksaray 11.5.2026 15:30 1.000 TL
915 2019 Mercedes A 180 d SEDAN 1.5 İzmir 11.5.2026 15:30 1.000 TL
916 1994 Fiat/Tofaş ŞAHİN 1.6 Denizli 11.5.2026 15:30 1.000 TL
917 1994 Mercedes E 200 Afyonkarahisar 11.5.2026 15:30 1.000 TL
918 2013 Mercedes SPRINTER 16+1 Gaziantep 11.5.2026 15:30 1.000 TL
919 2022 Motorsiklet 125 DRIFT L Samsun 11.5.2026 15:30 1.000 TL
920 2015 Fiat/Tofaş LINEA 1.3 MULTIJET Afyonkarahisar 11.5.2026 15:30 1.000 TL
921 1990 Fiat/Tofaş SAHIN 1.6 Denizli 11.5.2026 15:30 1.000 TL
922 2012 Tata VISTA 1.3 CRDI QUADROJET Şehir Seç 11.5.2026 15:30 1.000 TL
923 2005 Dorse/Römork Schmitz Cargobull RÖMORK Şehir Seç 11.5.2026 15:30 TL
924 2023 Citroen C4 1.2 PURETECH Kocaeli 11.5.2026 15:30 1.000 TL
925 2014 Ford FIESTA 1.6i Antalya 11.5.2026 15:30 1.000 TL
926 1998 Fiat/Tofaş PALIO 1.6 Kastamonu 11.5.2026 15:30 1.000 TL
927 2005 Renault KANGOO CONFORT 1.5 DCI Denizli 11.5.2026 15:30 1.000 TL
928 2023 Renault CLIO 1.0 TCE Bursa 11.5.2026 15:30 1.000 TL
929 2012 Ford TRANSIT 300 S VAN Diyarbakır 11.5.2026 15:30 1.000 TL
930 1999 Renault R9 BROADWAY 1.4 Afyonkarahisar 11.5.2026 15:30 1.000 TL
931 2025 Motorsiklet LAVINIA PRO 125 Kayseri 11.5.2026 15:30 1.000 TL
932 2012 Ford TRANSIT 11+1 Batman 11.5.2026 15:30 1.000 TL
933 2006 Ford FOCUS 1.6 TDCi TREND (109) Aydın 11.5.2026 15:30 1.000 TL
934 2012 Opel CORSA 1.2i TWINPORT Mersin 11.5.2026 15:30 1.000 TL
935 2010 Citroen C5 3 SX 1.6 HDI Eskişehir 11.5.2026 15:30 1.000 TL
936 2024 Honda PCX 125 Manisa 11.5.2026 15:30 1.000 TL
937 2021 Honda PCX 125 Denizli 11.5.2026 15:30 1.000 TL
938 2016 Volkswagen POLO 1.2 TSI BMT 90 İstanbul 11.5.2026 15:30 1.000 TL
939 2022 Motorsiklet CAPUCCINO 125 İstanbul 11.5.2026 15:30 1.000 TL
940 1992 Renault L 423 Sakarya 11.5.2026 15:30 1.000 TL
941 2008 Renault SYMBOL 1.4 EXTREME Samsun 11.5.2026 15:30 1.000 TL
942 2018 Fiat/Tofaş EGEA HB 1.6 E 120 Bolu 11.5.2026 15:30 1.000 TL
943 2015 Volkswagen CC 1.4 TSI BMT 160 Antalya 11.5.2026 15:30 1.000 TL
944 2012 Opel ASTRA NB ENJOY 1.3 CDTI (90) Antalya 11.5.2026 15:30 1.000 TL
945 2021 Opel CORSA 1.2 100 Ankara 11.5.2026 15:30 1.000 TL
946 2016 Dacia LODGY 1.5 DCI 90 Adana 11.5.2026 15:30 1.000 TL
947 2010 Peugeot PARTNER TEPEE 1.6 HDI Düzce 11.5.2026 15:30 1.000 TL
948 2004 Hyundai ACCENT İstanbul 11.5.2026 15:30 1.000 TL
949 2011 Mercedes AXOR 1840 LS İstanbul 11.5.2026 15:30 1.000 TL
950 2015 Volkswagen JETTA 1.2 TSI Mersin 11.5.2026 15:30 1.000 TL
951 2020 Fiat/Tofaş PRATICO KAMYONET 1.6 M.JET Antalya 11.5.2026 15:30 1.000 TL
952 2024 Honda PCX 125 Samsun 11.5.2026 15:30 1.000 TL
953 2021 Motorsiklet EXPLORER 250 Kırklareli 11.5.2026 15:30 1.000 TL
954 2016 Fiat/Tofaş EGEA 1.3 M.JET 95 Antalya 11.5.2026 15:30 1.000 TL
955 2011 Ford FIESTA 1.4 TDCi Karaman 11.5.2026 15:30 1.000 TL
956 2016 Kia CERATO 1.6 DIZEL 136 DCT İstanbul 11.5.2026 15:30 1.000 TL
957 2011 Volkswagen SCIROCCO 1.4 TSI 160 Mersin 11.5.2026 15:30 1.000 TL
958 2003 Opel COMBO 1.7 DTI Konya 11.5.2026 15:30 1.000 TL
959 2012 Mercedes AXOR 1840 LS E4 Şehir Seç 11.5.2026 16:30 1.000 TL
960 2005 Volkswagen LT 35 2,5 TDİ Şanlıurfa 11.5.2026 16:30 1.000 TL
961 2003 Land Rover FREELANDER 2.0 Aydın 11.5.2026 16:30 1.000 TL
962 2011 Ford FOCUS 1.6 TDCi COLLECTION Ankara 11.5.2026 16:30 1.000 TL
963 1998 Fiat/Tofaş BRAVO 1.6 SX Karaman 11.5.2026 16:30 1.000 TL
964 2025 Honda PCX 125 Muğla 11.5.2026 16:30 5.000 TL
965 2020 Toyota COROLLA 1.6 Düzce 11.5.2026 16:30 1.000 TL
966 2024 Motorsiklet BRILLIANT 50 PLUS İstanbul 11.5.2026 16:30 1.000 TL
967 2021 Honda CIVIC 1.6İ VTEC İstanbul 11.5.2026 16:30 1.000 TL
968 2017 Peugeot PARTNER 1.6 HDI Erzurum 11.5.2026 16:30 1.000 TL
969 2023 Motorsiklet PULSAR RS 200 Balıkesir 11.5.2026 16:30 1.000 TL
970 1979 Renault R12 TOROS Aydın 11.5.2026 16:30 1.000 TL
971 2003 Peugeot BOXER Balıkesir 11.5.2026 16:30 1.000 TL
972 2022 Fiat/Tofaş EGEA 1.3 MULTIJET İstanbul 11.5.2026 16:30 1.000 TL
973 1992 Toyota COROLLA GL 1.6 Kocaeli 11.5.2026 16:30 35.000 TL
974 2010 Kia RIO 1.4 Bolu 11.5.2026 16:30 1.000 TL
975 2020 Fiat/Tofaş EGEA 1.3 MULTIJET İstanbul 11.5.2026 16:30 1.000 TL
976 2013 Chevrolet CRUZE 1.6 Ankara 11.5.2026 16:30 1.000 TL
977 2001 Volkswagen GOLF 1.6 COMFORT Kayseri 11.5.2026 16:30 83.000 TL
978 2008 Renault PREMIUM 440.19 4x2 Tekirdağ 11.5.2026 16:30 1.000 TL
979 2017 Mercedes B 180 İstanbul 11.5.2026 16:30 413.000 TL
980 2021 Toyota HILUX 2.4 D-4D 150 4x4 ADVENTURE Ankara 11.5.2026 16:30 4.000 TL
981 2021 Volkswagen POLO 1.0 TSI 95 COMFORTLINE DSG Ankara 11.5.2026 16:30 338.000 TL
982 2014 Ford TRANSIT 350M ?IFT KABIN KAMYONET 155 E5 Ankara 11.5.2026 16:30 245.000 TL
983 2025 Ford TOURNEO COURIER 1.0 P 125 AT DELUXE Ankara 11.5.2026 16:30 300.000 TL
984 2023 Traktör ANTONIO CARRARO TGF 8900 PROTECTOR İstanbul 11.5.2026 16:30 251.000 TL
985 2020 Volkswagen PASSAT 1.6 TDI 120 DSG IMPRESSION Ankara 11.5.2026 16:30 17.500 TL
986 2016 Dacia LODGY LAUREATE 1.5 DCI 90 5 KISILIK Ankara 11.5.2026 16:30 255.500 TL
987 2016 Isuzu NLR KAMYONET İstanbul 11.5.2026 16:30 2.500 TL
988 2011 Mitsubishi L200 TEK KABIN K.NET INFORM İstanbul 11.5.2026 16:30 76.000 TL
989 2021 Motorsiklet ALTAI XLINE 50 PRO İstanbul 11.5.2026 16:30 500 TL
990 1999 Opel CORSA 1.4 GLS İstanbul 11.5.2026 16:30 500 TL
991 2024 Motorsiklet MOTOLUX CEO110 İstanbul 11.5.2026 16:30 500 TL
992 2022 Motorsiklet RKS TNT202 Rize 11.5.2026 16:30 500 TL
993 1996 Opel VECTRA 2.0 CD İstanbul 11.5.2026 16:30 500 TL
994 2022 Motorsiklet RKS SPONTINI 110 Çanakkale 11.5.2026 16:30 500 TL
995 2018 Motorsiklet CELIK CM100 Mersin 11.5.2026 16:30 500 TL
996 2024 Fiat/Tofaş DOBLO CARGO MAXI 1.5 100 BLUEHDI FL İstanbul 11.5.2026 16:30 500 TL
997 1992 Fiat/Tofaş TEMPRA SX Tekirdağ 11.5.2026 16:30 500 TL
998 1996 Renault 19 EUROPA 1.6 HB Zonguldak 11.5.2026 16:30 500 TL
999 2004 Ford FOCUS 1.6I COLLECTION HB İstanbul 11.5.2026 16:30 500 TL
1000 2010 Fiat/Tofaş PALIO SOLE 5K PREMIO 1.4 FIRE (77) İstanbul 11.5.2026 16:30 500 TL
1001 2007 Renault MASTER VAN 2.5 DCI İstanbul 11.5.2026 16:30 500 TL
1002 2001 Fiat/Tofaş SIENA 1.6 HL Gaziantep 11.5.2026 16:30 500 TL
1003 1992 Fiat/Tofaş DOGAN 1.6 SLX Samsun 11.5.2026 16:30 500 TL
1004 2000 Fiat/Tofaş SIENA 1.4 EL Erzurum 11.5.2026 16:30 500 TL
1005 2011 Hyundai I20 1.4 CVVT MODE İstanbul 11.5.2026 16:30 500 TL
1006 2000 Peugeot 306 PLATINUM 1.6 5 KAPI İstanbul 11.5.2026 16:30 500 TL
1007 2018 Motorsiklet MOTOLUX ROSSI 50 CC SCOOTER Balıkesir 11.5.2026 16:30 500 TL
1008 2022 Motorsiklet RKS PRIVATE 125 (GST125T-6) Denizli 11.5.2026 16:30 500 TL
1009 2022 Motorsiklet RUTEC BADI 125 (DY125T-16D) İstanbul 11.5.2026 16:30 500 TL
1010 2016 Motorsiklet MONDIAL SNAPPYX 100 Erzincan 11.5.2026 16:30 500 TL
1011 2022 Motorsiklet RKS SPONTINI 110 (GST110T-14) Tekirdağ 11.5.2026 16:30 1.000 TL
1012 2024 Motorsiklet SRK 250 S Ankara 11.5.2026 16:30 1.000 TL
1013 2025 Honda PCX 125 DLX İstanbul 11.5.2026 16:30 1.000 TL
1014 1993 Fiat/Tofaş DOĞAN 1.6 Antalya 11.5.2026 16:30 1.000 TL
1015 2005 Skoda FABIA HB 1.2 İzmir 11.5.2026 16:30 1.000 TL
1016 2022 Motorsiklet PULSAR NS 200 UG İstanbul 11.5.2026 16:30 1.000 TL
1017 2015 Ford TOURNEO COURIER KOMBI 1.5 TDCI İstanbul 11.5.2026 16:30 1.000 TL
1018 1999 Fiat/Tofaş KARTAL S Giresun 11.5.2026 16:30 5.000 TL
1019 2025 Honda NSS250A FORZA 250 İstanbul 11.5.2026 16:30 1.000 TL
1020 2013 Ford B-MAX TREND 1.6 İzmir 11.5.2026 16:30 1.000 TL
1021 1999 Rover 414 Sİ Ankara 11.5.2026 16:30 1.000 TL
1022 1997 Volkswagen POLO 1.6 Ankara 11.5.2026 16:30 1.000 TL
1023 2024 Motorsiklet RAIDER 125 Ankara 11.5.2026 16:30 1.000 TL
1024 2006 Dorse/Römork TENTELİ YARI RÖMORK Mardin 11.5.2026 16:30 36.500 TL
1025 2015 Fiat/Tofaş DUCATO KAMYONET İstanbul 11.5.2026 16:30 2.000 TL
1026 2001 Renault CLIO SYMBOL 1.4 Mersin 11.5.2026 16:30 5.000 TL
1027 2015 Citroen JUMPER MINIBUS 16+1 2.2 HDI Sakarya 12.5.2026 15:15 215.500 TL
1028 2023 Peugeot 3008 1.5 BLUEHDI Çanakkale 12.5.2026 15:15 500 TL
1029 2025 Audi Q2 35 TFSI ADVANCED Çanakkale 12.5.2026 15:15 603.000 TL
1030 2020 Honda CR-V 1.5i VTEC Zonguldak 12.5.2026 15:15 333.000 TL
1031 2021 Ford TRANSIT COURIER VAN 1.5 TDCI Samsun 12.5.2026 15:30 1.000 TL
1032 2024 Motorsiklet MOBİLİTTE WİND 5500 Şehir Seç 12.5.2026 15:30 1.000 TL
1033 2016 Motorsiklet YP 250 RA Aydın 12.5.2026 15:30 1.000 TL
1034 1997 Ford ESCORT 1.6 SEDAN Batman 12.5.2026 15:30 1.000 TL
1035 2024 Motorsiklet CHIA 125 PRO Balıkesir 12.5.2026 15:30 1.000 TL
1036 1991 Volkswagen GOLF 1.6 (ESKI MODEL) Şanlıurfa 12.5.2026 15:30 1.000 TL
1037 1997 Opel VECTRA 2.0 CD Ankara 12.5.2026 15:30 1.000 TL
1038 2012 Ford FIESTA TREND 1.4 TDCi Şehir Seç 12.5.2026 15:30 1.000 TL
1039 2024 Motorsiklet 125 DRIFT L Bursa 12.5.2026 15:30 1.000 TL
1040 2024 Opel COMBO 1.5 D Zonguldak 12.5.2026 15:30 1.000 TL
1041 1999 Fiat/Tofaş BRAVA 1.6 SX Bursa 12.5.2026 15:30 1.000 TL
1042 2014 Ford FOCUS 1.6 TDCİ Gaziantep 12.5.2026 15:30 1.000 TL
1043 2014 Volvo S60 1.6 Diyarbakır 12.5.2026 15:30 1.000 TL
1044 2024 Toyota COROLLA HYBRID 1.8 İzmir 12.5.2026 15:30 1.000 TL
1045 2025 Skoda OCTAVIA 1.5 MHEV DSG İzmir 12.5.2026 15:30 1.000 TL
1046 2025 Mini COUNTRYMAN E FAVOURED İstanbul 12.5.2026 15:30 1.000 TL
1047 2015 Renault MASTER PANELVAN 2.3 DCİ Kocaeli 12.5.2026 15:30 1.000 TL
1048 2024 Tesla MODEL Y Bursa 12.5.2026 15:30 1.000 TL
1049 2021 Seat IBIZA 1.0 Kocaeli 12.5.2026 15:30 1.000 TL
1050 2015 Motorsiklet PULSAR NS 200 İzmir 12.5.2026 15:30 1.000 TL
1051 1992 Fiat/Tofaş DOĞAN L Şehir Seç 12.5.2026 15:30 1.000 TL
1052 1992 Fiat/Tofaş SAHIN 1.6 Kayseri 12.5.2026 15:30 1.000 TL
1053 2010 Peugeot 206 1.4 HDI COMFORT İstanbul 12.5.2026 15:30 1.000 TL
1054 2016 Renault SYMBOL 1.5 DCI 90 İzmir 12.5.2026 15:30 1.000 TL
1055 2009 Peugeot 206 GENERATION 1.4 Erzurum 12.5.2026 15:30 1.000 TL
1056 2001 Renault MEGANE 1.4 16V Şehir Seç 12.5.2026 15:30 1.000 TL
1057 2015 Fiat/Tofaş FIORINO COMBI 1.3 M.JET 75 Sivas 12.5.2026 15:30 1.000 TL
1058 2021 Renault CLIO 1.0 TCE X-TRONIC İstanbul 12.5.2026 15:30 1.000 TL
1059 2012 Fiat/Tofaş LINEA 1.3 MULTIJET 90 Osmaniye 12.5.2026 15:30 1.000 TL
1060 2016 Volkswagen POLO 1.4 TDI İstanbul 12.5.2026 15:30 1.000 TL
1061 1998 Renault KANGOO EXPRESS 1.9D Konya 12.5.2026 15:30 1.000 TL
1062 1999 Land Rover FREELANDER 1.8 Ankara 12.5.2026 15:30 1.000 TL
1063 2004 Honda CIVIC 1.6 VTEC Diyarbakır 12.5.2026 15:30 1.000 TL
1064 2012 Ford FIESTA TREND 5K 1.4 TDCI Şehir Seç 12.5.2026 15:30 1.000 TL
1065 1994 Opel VECTRA 2.0 GLS Uşak 12.5.2026 15:30 1.000 TL
1066 1998 Renault R9 BROADWAY 1.4 Şehir Seç 12.5.2026 15:30 1.000 TL
1067 2006 Fiat/Tofaş PUNTO 1.3 MULTIJET DYNAMİC İstanbul 12.5.2026 15:30 1.000 TL
1068 2025 Chery OMODA 5 PRO Mersin 12.5.2026 15:30 1.000 TL
1069 2020 Renault CLIO 1,0 Şanlıurfa 12.5.2026 15:30 1.000 TL
1070 2013 Motorsiklet GTS 250 İstanbul 12.5.2026 15:30 1.000 TL
1071 2016 Motorsiklet R25 ABS Muğla 12.5.2026 15:30 1.000 TL
1072 2023 Motorsiklet DOMINAR D 250 Kocaeli 12.5.2026 15:30 1.000 TL
1073 2007 Volkswagen CADDY KOMBI 1.9 TDI Kocaeli 12.5.2026 15:30 1.000 TL
1074 2017 Hyundai i20 1.4 MPI Osmaniye 12.5.2026 15:30 1.000 TL
1075 2020 Renault CLIO 1.3 TCE EDC 130 İstanbul 12.5.2026 15:30 1.000 TL
1076 1992 Renault R9 GTE BROADWAY Kütahya 12.5.2026 15:30 1.000 TL
1077 2025 Bmw 120 1.5 170 SPORT LINE Ankara 12.5.2026 15:30 1.000 TL
1078 2010 Skoda OCTAVİA 1.6 Ankara 12.5.2026 15:30 1.000 TL
1079 2018 Peugeot BELVİLLE Aydın 12.5.2026 15:30 1.000 TL
1080 2024 Honda ACTİVA 125 Zonguldak 12.5.2026 15:30 1.000 TL
1081 2006 Renault MEGANE Kayseri 12.5.2026 15:30 1.000 TL
1082 2004 Renault MEGANE 1.6 AUT. Kırıkkale 12.5.2026 15:30 1.000 TL
1083 2001 Ford FOCUS 1.6i GHIA Manisa 12.5.2026 15:30 1.000 TL
1084 2024 Ford TRANSİT KAMYONET Batman 12.5.2026 15:30 1.000 TL
1085 2020 Dacia DUSTER 1.6 İzmir 12.5.2026 15:30 1.000 TL
1086 2016 Ford FOCUS 1.5 TDCI 120 Şehir Seç 12.5.2026 15:30 1.000 TL
1087 2023 Motorsiklet MAX-T 150 İstanbul 12.5.2026 15:30 1.000 TL
1088 2022 Honda DIO 110 Antalya 12.5.2026 15:30 1.000 TL
1089 2012 Renault FLUENCE 1.5 DCI Şanlıurfa 12.5.2026 15:30 1.000 TL
1090 2021 Honda CIVIC 1.6 Antalya 12.5.2026 15:30 1.000 TL
1091 2023 Motorsiklet VİNTAGE 50 Şanlıurfa 12.5.2026 15:30 1.000 TL
1092 2011 Audi A5 SPORTBACK 2.0 TDI Elazığ 12.5.2026 15:30 1.000 TL
1093 2023 Motorsiklet RS 125 İstanbul 12.5.2026 15:30 1.000 TL
1094 1998 Fiat/Tofaş KARTAL S Aksaray 12.5.2026 15:30 1.000 TL
1095 1997 Fiat/Tofaş SAHIN S 1.6 Bursa 12.5.2026 15:30 1.000 TL
1096 2021 Dacia DOKKER 1.6 Muğla 12.5.2026 15:30 1.000 TL
1097 2024 Motorsiklet 250 SR Karabük 12.5.2026 15:30 1.000 TL
1098 2022 Motorsiklet 250 NK İstanbul 12.5.2026 15:30 1.000 TL
1099 1993 Renault L 422 BROADWAY Ankara 12.5.2026 15:30 1.000 TL
1100 2024 Motorsiklet Regal Raptor PILDER 250 İstanbul 12.5.2026 15:30 TL
1101 2006 Volkswagen PASSAT 2.0 TDI Samsun 12.5.2026 15:30 1.000 TL
1102 2000 Daf CEKICI FT 95 XF 480 Osmaniye 12.5.2026 15:30 1.000 TL
1103 2004 Renault LAGUNA 1.6 Bursa 12.5.2026 15:30 1.000 TL
1104 1992 Fiat/Tofaş DOĞAN Şehir Seç 12.5.2026 15:30 1.000 TL
1105 1992 Fiat/Tofaş ŞAHİN 1.6 Eskişehir 12.5.2026 15:30 1.000 TL
1106 2025 Renault CLIO 1.0 TCE İstanbul 12.5.2026 15:30 1.000 TL
1107 2010 Skoda ROOMSTER 1.2 Şehir Seç 12.5.2026 15:30 1.000 TL
1108 2012 Nissan JUKE 1.5 DCI TEKNA İstanbul 12.5.2026 15:30 1.000 TL
1109 2025 Motorsiklet RAIDER 125 Gaziantep 12.5.2026 15:30 1.000 TL
1110 2015 Motorsiklet XCITING 250 Antalya 12.5.2026 15:30 1.000 TL
1111 2016 Motorsiklet 150 NK Şehir Seç 12.5.2026 15:30 1.000 TL
1112 1989 Fiat/Tofaş DOĞAN 1.6 Şehir Seç 12.5.2026 15:30 1.000 TL
1113 2020 Motorsiklet ROCCA Şanlıurfa 12.5.2026 15:30 1.000 TL
1114 2021 Honda DIO Muğla 12.5.2026 15:30 1.000 TL
1115 2010 Nissan QASHQAI 1.6 VISIA Muğla 12.5.2026 15:30 1.000 TL
1116 2023 Motorsiklet TRIUMPH TRIDENT 660 Şehir Seç 12.5.2026 15:30 1.000 TL
1117 2017 Renault SYMBOL 1.5 DCI 90 Şehir Seç 12.5.2026 15:30 1.000 TL
1118 2016 Fiat/Tofaş EGEA HB 1.3 M.JET 95 Siirt 12.5.2026 15:30 1.000 TL
1119 2018 Audi A5 COUPE 1.4 TFSI 150 S TRONIC Ankara 12.5.2026 15:30 1.000 TL
1120 2018 Fiat/Tofaş EGEA 1.3 M.JET 95 İstanbul 12.5.2026 15:30 1.000 TL
1121 2024 Volvo S60 B5 2.0 250 İzmir 12.5.2026 15:30 1.000 TL
1122 2010 Volkswagen JETTA 1.6 TDI Şanlıurfa 12.5.2026 15:30 1.000 TL
1123 1994 Fiat/Tofaş TEMPRA S Konya 12.5.2026 15:30 1.000 TL
1124 2022 Fiat/Tofaş EGEA 1.4 Şanlıurfa 12.5.2026 15:30 1.000 TL
1125 2017 Fiat/Tofaş DOBLO COMBI 1.6 M.JET 105 Antalya 12.5.2026 15:30 1.000 TL
1126 2025 Motorsiklet Z 500 Şehir Seç 12.5.2026 15:30 1.000 TL
1127 2023 Motorsiklet MEDLEY 150 İzmir 12.5.2026 15:30 1.000 TL
1128 2024 Motorsiklet JUPITER 125 Gaziantep 12.5.2026 15:30 1.000 TL
1129 2019 Renault CLIO HB 0.9 TCE 90 Aksaray 12.5.2026 15:30 1.000 TL
1130 2014 Audi A3 SEDAN 1.6 TDI 105 S TRONIC İzmir 12.5.2026 15:30 1.000 TL
1131 1998 Bmw 520IA Denizli 12.5.2026 15:30 1.000 TL
1132 2012 Scania CEKICI G420 CA 4x2 HSA Samsun 12.5.2026 15:30 1.000 TL
1133 2017 Opel INSIGNIA NB 1.6D İzmir 12.5.2026 15:30 1.000 TL
1134 2009 Fiat/Tofaş DOBLO COMBI 1.3 MULTIJET PREMIO Şehir Seç 12.5.2026 15:30 1.000 TL
1135 2003 Fiat/Tofaş SAHIN 1.6 İ.E. Şehir Seç 12.5.2026 15:30 1.000 TL
1136 2014 Scania CEKICI R400 LA 4x2 HLA Konya 12.5.2026 15:30 1.000 TL
1137 2010 Chevrolet CRUZE 1.6 16V LS Ankara 12.5.2026 16:30 1.000 TL
1138 2011 Motorsiklet TRIUMP TIGER 1050 CC İstanbul 12.5.2026 16:30 1.000 TL
1139 2025 Motorsiklet FIAT TOPOLINO İstanbul 12.5.2026 16:30 120.000 TL
1140 2017 Renault MEGANE SEDAN TOUCH 1.5 DCI EDC 110 İstanbul 12.5.2026 16:30 465.000 TL
1141 2023 Ford TRANSIT COURIER 1.5 TDCI 75 E6.2 TREND İstanbul 12.5.2026 16:30 1.000 TL
1142 2021 Honda CIVIC 4D ELEGANCE ECO 1.6 125 OV Ankara 12.5.2026 16:30 755.000 TL
1143 2017 Fiat/Tofaş EGEA URBAN 1.4 FIRE 95 E6 İstanbul 12.5.2026 16:30 1.000 TL
1144 2023 Motorsiklet APRILIA TUONO V4 FACTORY 1100 İstanbul 12.5.2026 16:30 30.000 TL
1145 2024 Opel VIVARO CARGO 2.0 145 DIZEL MT6 ELEGANCE XL İstanbul 12.5.2026 16:30 456.000 TL
1146 2023 Citroen E-C4 X SHINE BOLD 100 KW Ankara 12.5.2026 16:30 101.000 TL
1147 2023 Motorsiklet 250 DUKE İstanbul 12.5.2026 16:30 1.000 TL
1148 2013 Renault MASTER PANELVAN İstanbul 12.5.2026 16:30 1.000 TL
1149 2024 Motorsiklet RZ 125 İzmir 12.5.2026 16:30 1.000 TL
1150 2022 Motorsiklet VS2 Aydın 12.5.2026 16:30 1.000 TL
1151 2020 Honda ACTIVA S (NSC125) İstanbul 12.5.2026 16:30 1.000 TL
1152 2023 Motorsiklet JETX 125 İstanbul 12.5.2026 16:30 1.000 TL
1153 2024 Fiat/Tofaş DOBLO COMBI 1.5 100 BLUEHDI Ankara 13.5.2026 15:30 1.000 TL
1154 2023 Togg T10X V2 RWD UZUN MENZIL 160KW Ankara 13.5.2026 15:30 1.000 TL
1155 2008 Ford T. CONNECT KOMBI K210S 1.8 TDCi (75) Şanlıurfa 13.5.2026 15:30 1.000 TL
1156 2013 Mercedes E 250 CDI 4MATIC Hatay 13.5.2026 15:30 1.000 TL
1157 2022 Toyota COROLLA 1.5 MULTIDRIVE S Sakarya 13.5.2026 15:30 1.000 TL
1158 2012 Volkswagen GOLF VI 1.6 (102) TRENDLINE Adana 13.5.2026 15:30 1.000 TL
1159 2007 Ford FIESTA 1.6i COMFORT OV Ankara 13.5.2026 15:30 1.000 TL
1160 2016 Fiat/Tofaş EGEA 1.3 M.JET 95 Samsun 13.5.2026 15:30 1.000 TL
1161 2006 Saab 9-3 VECTOR 2.0 T SEDAN Afyonkarahisar 28.7.2026 16:30 265.000 TL
Deniz Uğurlu : 0532 6657413 - Abdullah Adsay : 0506 7521791 - Metin Oktay : 0532 6717940 -  WhatsApp Hattı: 0533 2028867
Banka Hesabımız
Copyright © 2003 , TAŞKIN  UĞURLU  Hasarlı Oto Tüm hakları saklıdır.